Time,TemperatureF,DewpointF,PressureIn,WindDirection,WindDirectionDegrees,WindSpeedMPH,WindSpeedGustMPH,Humidity,HourlyPrecipIn,Conditions,Clouds,dailyrainin,SoftwareType,DateUTC
2013-05-31 00:00:00,46.6,21.7,30.00,South,179,2.2,5.8,37,0.00,,---,0.00,VWS V14.01,2013-05-31 06:00:00,
2013-05-31 00:01:00,46.4,21.6,30.00,South,183,0.0,2.2,37,0.00,,---,0.00,VWS V14.01,2013-05-31 06:01:00,
2013-05-31 00:02:00,46.4,21.6,30.00,WNW,291,2.7,4.0,37,0.00,,---,0.00,VWS V14.01,2013-05-31 06:02:00,
2013-05-31 00:04:00,46.4,21.6,30.00,SSW,208,3.6,4.0,37,0.00,,---,0.00,VWS V14.01,2013-05-31 06:04:00,
2013-05-31 00:05:00,46.4,21.6,30.00,WNW,292,2.7,4.5,37,0.00,,---,0.00,VWS V14.01,2013-05-31 06:05:00,
2013-05-31 00:06:00,46.4,21.6,30.00,WNW,288,3.1,4.5,37,0.00,,---,0.00,VWS V14.01,2013-05-31 06:06:00,
2013-05-31 00:07:00,46.4,21.6,30.00,WNW,288,2.7,4.5,37,0.00,,---,0.00,VWS V14.01,2013-05-31 06:07:00,
2013-05-31 00:09:00,46.6,21.7,30.00,West,279,3.6,4.5,37,0.00,,---,0.00,VWS V14.01,2013-05-31 06:09:00,
2013-05-31 00:11:00,46.6,21.7,30.00,WNW,283,3.1,4.9,37,0.00,,---,0.00,VWS V14.01,2013-05-31 06:11:00,
2013-05-31 00:12:00,46.6,21.7,30.00,West,259,3.1,5.8,37,0.00,,---,0.00,VWS V14.01,2013-05-31 06:12:00,
2013-05-31 00:14:00,46.6,21.7,30.00,WNW,294,4.0,5.8,37,0.00,,---,0.00,VWS V14.01,2013-05-31 06:14:00,
2013-05-31 00:16:00,46.6,21.7,30.00,WNW,295,2.7,3.1,37,0.00,,---,0.00,VWS V14.01,2013-05-31 06:16:00,
2013-05-31 00:17:00,46.6,21.7,30.00,SW,236,2.2,4.0,37,0.00,,---,0.00,VWS V14.01,2013-05-31 06:17:00,
2013-05-31 00:18:00,46.6,21.7,30.00,NNW,327,2.7,4.0,37,0.00,,---,0.00,VWS V14.01,2013-05-31 06:18:00,
2013-05-31 00:19:00,46.6,21.7,30.00,WSW,246,3.6,5.4,37,0.00,,---,0.00,VWS V14.01,2013-05-31 06:19:00,
2013-05-31 00:21:00,46.6,21.7,30.00,WNW,298,3.1,5.8,37,0.00,,---,0.00,VWS V14.01,2013-05-31 06:21:00,
2013-05-31 00:22:00,46.6,21.7,30.00,NW,315,3.1,5.8,37,0.00,,---,0.00,VWS V14.01,2013-05-31 06:22:00,
2013-05-31 00:23:00,46.6,21.7,30.00,NW,306,3.1,5.8,37,0.00,,---,0.00,VWS V14.01,2013-05-31 06:23:00,
2013-05-31 00:24:00,46.6,21.7,30.00,NNW,332,3.6,5.8,37,0.00,,---,0.00,VWS V14.01,2013-05-31 06:24:00,
2013-05-31 00:26:00,46.4,21.6,30.00,NNW,338,2.7,5.8,37,0.00,,---,0.00,VWS V14.01,2013-05-31 06:26:00,
2013-05-31 00:27:00,46.4,21.6,30.00,West,271,4.9,5.8,37,0.00,,---,0.00,VWS V14.01,2013-05-31 06:27:00,
2013-05-31 00:28:00,46.4,21.6,30.00,West,268,2.7,5.8,37,0.00,,---,0.00,VWS V14.01,2013-05-31 06:28:00,
2013-05-31 00:29:00,46.4,21.6,30.00,SW,236,0.0,5.8,37,0.00,,---,0.00,VWS V14.01,2013-05-31 06:29:00,
2013-05-31 00:31:00,46.4,21.6,30.00,SSE,162,3.1,4.9,37,0.00,,---,0.00,VWS V14.01,2013-05-31 06:31:00,
2013-05-31 00:33:00,46.2,22.0,30.00,SSE,155,2.2,4.9,38,0.00,,---,0.00,VWS V14.01,2013-05-31 06:33:00,
2013-05-31 00:34:00,46.2,22.0,30.00,WSW,248,4.0,6.3,38,0.00,,---,0.00,VWS V14.01,2013-05-31 06:34:00,
2013-05-31 00:35:00,46.2,22.0,30.00,WSW,247,4.0,6.3,38,0.00,,---,0.00,VWS V14.01,2013-05-31 06:35:00,
2013-05-31 00:37:00,46.2,22.0,30.00,WSW,257,5.4,6.3,38,0.00,,---,0.00,VWS V14.01,2013-05-31 06:37:00,
2013-05-31 00:38:00,46.2,22.0,30.00,NW,318,2.7,6.3,38,0.00,,---,0.00,VWS V14.01,2013-05-31 06:38:00,
2013-05-31 00:39:00,46.2,22.0,30.00,WNW,295,3.1,6.3,38,0.00,,---,0.00,VWS V14.01,2013-05-31 06:39:00,
2013-05-31 00:40:00,46.2,22.0,30.00,WNW,295,2.7,6.3,38,0.00,,---,0.00,VWS V14.01,2013-05-31 06:40:00,
2013-05-31 00:42:00,46.2,22.0,30.00,NW,321,2.7,6.3,38,0.00,,---,0.00,VWS V14.01,2013-05-31 06:42:00,
2013-05-31 00:43:00,46.2,22.0,30.00,SSW,192,3.1,6.3,38,0.00,,---,0.00,VWS V14.01,2013-05-31 06:43:00,
2013-05-31 00:45:00,46.2,22.0,30.00,NW,326,4.0,6.3,38,0.00,,---,0.00,VWS V14.01,2013-05-31 06:45:00,
2013-05-31 00:46:00,46.2,22.0,30.00,NW,316,2.7,3.6,38,0.00,,---,0.00,VWS V14.01,2013-05-31 06:46:00,
2013-05-31 00:47:00,46.2,22.0,30.00,SW,225,2.7,3.6,38,0.00,,---,0.00,VWS V14.01,2013-05-31 06:47:00,
2013-05-31 00:48:00,46.2,22.0,30.00,NW,311,3.1,5.4,38,0.00,,---,0.00,VWS V14.01,2013-05-31 06:48:00,
2013-05-31 00:49:00,46.2,22.0,30.00,WNW,296,5.4,5.4,38,0.00,,---,0.00,VWS V14.01,2013-05-31 06:49:00,
2013-05-31 00:50:00,46.2,22.0,30.00,NNW,331,3.1,5.4,38,0.00,,---,0.00,VWS V14.01,2013-05-31 06:50:00,
2013-05-31 00:51:00,46.2,22.0,30.00,WNW,303,3.6,5.4,38,0.00,,---,0.00,VWS V14.01,2013-05-31 06:51:00,
2013-05-31 00:53:00,46.0,21.9,30.00,SSW,208,2.7,5.4,38,0.00,,---,0.00,VWS V14.01,2013-05-31 06:53:00,
2013-05-31 00:54:00,46.0,21.9,30.00,SSW,207,2.7,5.4,38,0.00,,---,0.00,VWS V14.01,2013-05-31 06:54:00,
2013-05-31 00:55:00,46.0,21.9,30.00,WNW,292,3.6,5.8,38,0.00,,---,0.00,VWS V14.01,2013-05-31 06:55:00,
2013-05-31 00:56:00,46.0,21.9,30.00,WNW,301,4.0,5.8,38,0.00,,---,0.00,VWS V14.01,2013-05-31 06:56:00,
2013-05-31 00:58:00,46.0,21.9,30.00,West,273,3.1,5.8,38,0.00,,---,0.00,VWS V14.01,2013-05-31 06:58:00,
2013-05-31 00:59:00,46.0,21.9,30.00,West,273,0.0,5.8,38,0.00,,---,0.00,VWS V14.01,2013-05-31 06:59:00,
2013-05-31 01:00:00,46.0,21.9,30.00,WNW,303,0.0,5.8,38,0.00,,---,0.00,VWS V14.01,2013-05-31 07:00:00,
2013-05-31 01:01:00,46.0,21.9,30.00,NW,308,2.7,3.1,38,0.00,,---,0.00,VWS V14.01,2013-05-31 07:01:00,
2013-05-31 01:04:00,46.0,21.9,30.00,NNW,331,3.6,4.5,38,0.00,,---,0.00,VWS V14.01,2013-05-31 07:04:00,
2013-05-31 01:05:00,46.0,21.9,30.00,WSW,250,3.1,4.5,38,0.00,,---,0.00,VWS V14.01,2013-05-31 07:05:00,
2013-05-31 01:06:00,46.0,21.9,30.00,West,273,3.1,4.5,38,0.00,,---,0.00,VWS V14.01,2013-05-31 07:06:00,
2013-05-31 01:09:00,46.0,21.9,30.00,South,171,4.0,4.9,38,0.00,,---,0.00,VWS V14.01,2013-05-31 07:09:00,
2013-05-31 01:10:00,46.0,21.9,30.00,SSE,158,2.2,4.9,38,0.00,,---,0.00,VWS V14.01,2013-05-31 07:10:00,
2013-05-31 01:11:00,45.9,21.7,30.00,NW,315,3.1,5.8,38,0.00,,---,0.00,VWS V14.01,2013-05-31 07:11:00,
2013-05-31 01:14:00,45.9,21.7,30.00,WNW,288,2.7,5.8,38,0.00,,---,0.00,VWS V14.01,2013-05-31 07:14:00,
2013-05-31 01:15:00,45.9,21.7,30.00,WNW,288,2.7,5.8,38,0.00,,---,0.00,VWS V14.01,2013-05-31 07:15:00,
2013-05-31 01:16:00,45.9,21.7,30.00,WNW,291,0.0,2.7,38,0.00,,---,0.00,VWS V14.01,2013-05-31 07:16:00,
2013-05-31 01:20:00,45.9,21.7,30.00,WNW,288,4.0,7.6,38,0.00,,---,0.00,VWS V14.01,2013-05-31 07:20:00,
2013-05-31 01:21:00,45.9,21.7,30.00,WSW,239,3.6,7.6,38,0.00,,---,0.00,VWS V14.01,2013-05-31 07:21:00,
2013-05-31 01:25:00,45.9,21.7,30.00,WNW,298,4.9,7.6,38,0.00,,---,0.00,VWS V14.01,2013-05-31 07:25:00,
2013-05-31 01:26:00,45.9,21.7,30.00,WNW,292,3.6,7.6,38,0.00,,---,0.00,VWS V14.01,2013-05-31 07:26:00,
2013-05-31 01:27:00,45.9,21.7,30.00,WNW,284,3.6,7.6,38,0.00,,---,0.00,VWS V14.01,2013-05-31 07:27:00,
2013-05-31 01:30:00,45.9,21.7,30.00,NNW,345,5.4,7.6,38,0.00,,---,0.00,VWS V14.01,2013-05-31 07:30:00,
2013-05-31 01:31:00,45.9,21.7,30.00,West,280,3.6,6.3,38,0.00,,---,0.00,VWS V14.01,2013-05-31 07:31:00,
2013-05-31 01:32:00,45.9,21.7,30.00,West,278,4.0,6.3,38,0.00,,---,0.00,VWS V14.01,2013-05-31 07:32:00,
2013-05-31 01:35:00,45.7,21.5,30.00,WNW,287,4.0,6.3,38,0.00,,---,0.00,VWS V14.01,2013-05-31 07:35:00,
2013-05-31 01:36:00,45.7,21.5,30.00,WNW,290,2.2,6.3,38,0.00,,---,0.00,VWS V14.01,2013-05-31 07:36:00,
2013-05-31 01:37:00,45.7,21.5,30.00,West,263,8.3,8.3,38,0.00,,---,0.00,VWS V14.01,2013-05-31 07:37:00,
2013-05-31 01:40:00,45.9,21.7,30.00,WNW,299,4.0,8.3,38,0.00,,---,0.00,VWS V14.01,2013-05-31 07:40:00,
2013-05-31 01:41:00,45.9,21.7,30.00,WNW,300,6.3,8.3,38,0.00,,---,0.00,VWS V14.01,2013-05-31 07:41:00,
2013-05-31 01:42:00,45.9,21.7,30.00,West,276,6.3,8.3,38,0.00,,---,0.00,VWS V14.01,2013-05-31 07:42:00,
2013-05-31 01:45:00,45.9,21.7,30.00,West,279,3.1,3.1,38,0.00,,---,0.00,VWS V14.01,2013-05-31 07:45:00,
2013-05-31 01:46:00,45.9,21.7,30.00,West,279,3.1,3.6,38,0.00,,---,0.00,VWS V14.01,2013-05-31 07:46:00,
2013-05-31 01:47:00,45.9,21.7,30.00,WNW,284,3.1,3.6,38,0.00,,---,0.00,VWS V14.01,2013-05-31 07:47:00,
2013-05-31 01:51:00,45.7,21.5,30.00,West,268,2.2,5.4,38,0.00,,---,0.00,VWS V14.01,2013-05-31 07:51:00,
2013-05-31 01:52:00,45.7,21.5,30.00,NNW,328,4.0,5.4,38,0.00,,---,0.00,VWS V14.01,2013-05-31 07:52:00,
2013-05-31 01:54:00,45.7,21.5,30.00,NNW,329,5.8,5.8,38,0.00,,---,0.00,VWS V14.01,2013-05-31 07:54:00,
2013-05-31 01:56:00,45.7,21.5,30.00,WNW,303,5.8,6.7,38,0.00,,---,0.00,VWS V14.01,2013-05-31 07:56:00,
2013-05-31 01:57:00,45.7,21.5,30.00,WNW,303,5.4,6.7,38,0.00,,---,0.00,VWS V14.01,2013-05-31 07:57:00,
2013-05-31 01:58:00,45.7,21.5,30.00,NW,306,4.9,6.7,38,0.00,,---,0.00,VWS V14.01,2013-05-31 07:58:00,
2013-05-31 01:59:00,45.7,21.5,30.00,NW,306,2.2,6.7,38,0.00,,---,0.00,VWS V14.01,2013-05-31 07:59:00,
2013-05-31 02:01:00,45.7,21.5,30.00,WNW,288,5.4,5.4,38,0.00,,---,0.00,VWS V14.01,2013-05-31 08:01:00,
2013-05-31 02:02:00,45.7,21.5,30.00,SSW,198,4.9,5.4,38,0.00,,---,0.00,VWS V14.01,2013-05-31 08:02:00,
2013-05-31 02:03:00,45.7,21.5,30.00,West,271,5.8,5.8,38,0.00,,---,0.00,VWS V14.01,2013-05-31 08:03:00,
2013-05-31 02:04:00,45.7,21.5,30.00,West,269,5.4,5.8,38,0.00,,---,0.00,VWS V14.01,2013-05-31 08:04:00,
2013-05-31 02:06:00,45.9,21.7,30.00,WNW,282,3.1,5.8,38,0.00,,---,0.00,VWS V14.01,2013-05-31 08:06:00,
2013-05-31 02:07:00,45.7,21.5,30.00,North,350,5.8,5.8,38,0.00,,---,0.00,VWS V14.01,2013-05-31 08:07:00,
2013-05-31 02:08:00,45.7,21.5,30.00,WNW,301,4.0,5.8,38,0.00,,---,0.00,VWS V14.01,2013-05-31 08:08:00,
2013-05-31 02:10:00,45.9,21.7,30.00,WNW,299,2.2,5.8,38,0.00,,---,0.00,VWS V14.01,2013-05-31 08:10:00,
2013-05-31 02:11:00,45.9,21.7,30.00,NW,304,3.6,5.8,38,0.00,,---,0.00,VWS V14.01,2013-05-31 08:11:00,
2013-05-31 02:12:00,45.9,21.7,30.00,WNW,295,2.7,5.8,38,0.00,,---,0.00,VWS V14.01,2013-05-31 08:12:00,
2013-05-31 02:13:00,45.7,21.5,30.00,WNW,288,3.1,5.8,38,0.00,,---,0.00,VWS V14.01,2013-05-31 08:13:00,
2013-05-31 02:15:00,45.7,21.5,30.00,WNW,297,3.1,5.8,38,0.00,,---,0.00,VWS V14.01,2013-05-31 08:15:00,
2013-05-31 02:16:00,45.7,21.5,30.00,West,281,4.0,5.8,38,0.00,,---,0.00,VWS V14.01,2013-05-31 08:16:00,
2013-05-31 02:18:00,45.7,21.5,30.00,West,279,4.0,7.6,38,0.00,,---,0.00,VWS V14.01,2013-05-31 08:18:00,
2013-05-31 02:20:00,45.7,21.5,30.00,NW,309,5.4,7.6,38,0.00,,---,0.00,VWS V14.01,2013-05-31 08:20:00,
2013-05-31 02:22:00,45.7,21.5,30.00,NW,321,5.4,7.6,38,0.00,,---,0.00,VWS V14.01,2013-05-31 08:22:00,
2013-05-31 02:23:00,45.7,21.5,30.00,NW,306,4.9,7.6,38,0.00,,---,0.00,VWS V14.01,2013-05-31 08:23:00,
2013-05-31 02:25:00,45.7,21.5,30.00,NW,314,5.8,7.6,38,0.00,,---,0.00,VWS V14.01,2013-05-31 08:25:00,
2013-05-31 02:27:00,45.9,21.7,30.00,West,264,3.6,7.6,38,0.00,,---,0.00,VWS V14.01,2013-05-31 08:27:00,
2013-05-31 02:28:00,45.7,21.5,30.00,WSW,239,2.7,7.6,38,0.00,,---,0.00,VWS V14.01,2013-05-31 08:28:00,
2013-05-31 02:29:00,45.7,21.5,30.00,NW,313,5.4,7.6,38,0.00,,---,0.00,VWS V14.01,2013-05-31 08:29:00,
2013-05-31 02:30:00,45.7,21.5,30.00,WSW,258,3.6,7.6,38,0.00,,---,0.00,VWS V14.01,2013-05-31 08:30:00,
2013-05-31 02:32:00,45.5,21.4,30.00,NW,306,4.0,5.4,38,0.00,,---,0.00,VWS V14.01,2013-05-31 08:32:00,
2013-05-31 02:33:00,45.7,21.5,30.00,NW,322,2.2,5.8,38,0.00,,---,0.00,VWS V14.01,2013-05-31 08:33:00,
2013-05-31 02:34:00,45.7,21.5,30.00,West,262,2.7,5.8,38,0.00,,---,0.00,VWS V14.01,2013-05-31 08:34:00,
2013-05-31 02:35:00,45.5,21.4,30.00,West,274,0.0,5.8,38,0.00,,---,0.00,VWS V14.01,2013-05-31 08:35:00,
2013-05-31 02:37:00,45.5,21.4,30.00,West,276,3.6,5.8,38,0.00,,---,0.00,VWS V14.01,2013-05-31 08:37:00,
2013-05-31 02:39:00,45.5,21.4,30.00,WNW,286,3.6,5.8,38,0.00,,---,0.00,VWS V14.01,2013-05-31 08:39:00,
2013-05-31 02:41:00,45.5,21.4,30.00,NNW,328,4.9,8.3,38,0.00,,---,0.00,VWS V14.01,2013-05-31 08:41:00,
2013-05-31 02:42:00,45.5,21.4,30.00,West,262,3.1,8.3,38,0.00,,---,0.00,VWS V14.01,2013-05-31 08:42:00,
2013-05-31 02:44:00,45.5,21.4,30.00,WNW,298,5.4,8.3,38,0.00,,---,0.00,VWS V14.01,2013-05-31 08:44:00,
2013-05-31 02:46:00,45.5,21.4,30.00,West,266,2.7,5.4,38,0.00,,---,0.00,VWS V14.01,2013-05-31 08:46:00,
2013-05-31 02:48:00,45.5,21.4,30.00,WNW,299,4.9,6.3,38,0.00,,---,0.00,VWS V14.01,2013-05-31 08:48:00,
2013-05-31 02:49:00,45.5,21.4,30.00,WNW,294,5.8,6.3,38,0.00,,---,0.00,VWS V14.01,2013-05-31 08:49:00,
2013-05-31 02:51:00,45.5,21.4,30.00,West,275,5.8,6.3,38,0.00,,---,0.00,VWS V14.01,2013-05-31 08:51:00,
2013-05-31 02:53:00,45.3,21.2,30.00,SW,236,5.4,7.6,38,0.00,,---,0.00,VWS V14.01,2013-05-31 08:53:00,
2013-05-31 02:54:00,45.3,21.2,30.00,West,261,2.2,7.6,38,0.00,,---,0.00,VWS V14.01,2013-05-31 08:54:00,
2013-05-31 02:55:00,45.3,21.2,30.00,West,268,3.6,7.6,38,0.00,,---,0.00,VWS V14.01,2013-05-31 08:55:00,
2013-05-31 02:56:00,45.3,21.2,30.00,NW,324,5.8,7.6,38,0.00,,---,0.00,VWS V14.01,2013-05-31 08:56:00,
2013-05-31 02:59:00,45.5,21.4,30.00,WNW,301,6.3,7.6,38,0.00,,---,0.00,VWS V14.01,2013-05-31 08:59:00,
2013-05-31 03:00:00,45.3,21.2,30.00,WNW,290,3.1,7.6,38,0.00,,---,0.00,VWS V14.01,2013-05-31 09:00:00,
2013-05-31 03:01:00,45.3,21.2,30.00,SW,226,5.4,5.4,38,0.00,,---,0.00,VWS V14.01,2013-05-31 09:01:00,
2013-05-31 03:04:00,45.3,21.2,30.00,WSW,238,3.1,5.8,38,0.00,,---,0.00,VWS V14.01,2013-05-31 09:04:00,
2013-05-31 03:05:00,45.3,21.2,30.00,West,279,4.0,5.8,38,0.00,,---,0.00,VWS V14.01,2013-05-31 09:05:00,
2013-05-31 03:06:00,45.3,21.2,30.00,WNW,301,5.4,5.8,38,0.00,,---,0.00,VWS V14.01,2013-05-31 09:06:00,
2013-05-31 03:09:00,45.3,21.2,30.00,WNW,284,3.1,5.8,38,0.00,,---,0.00,VWS V14.01,2013-05-31 09:09:00,
2013-05-31 03:10:00,45.3,21.2,30.00,WNW,285,2.2,5.8,38,0.00,,---,0.00,VWS V14.01,2013-05-31 09:10:00,
2013-05-31 03:11:00,45.3,21.2,30.00,NNW,346,3.6,5.8,38,0.00,,---,0.00,VWS V14.01,2013-05-31 09:11:00,
2013-05-31 03:15:00,45.1,21.1,30.00,WSW,248,2.7,6.3,38,0.00,,---,0.00,VWS V14.01,2013-05-31 09:15:00,
2013-05-31 03:16:00,45.1,21.1,30.00,WNW,297,3.1,3.6,38,0.00,,---,0.00,VWS V14.01,2013-05-31 09:16:00,
2013-05-31 03:20:00,45.1,21.1,30.03,WNW,296,2.2,4.0,38,0.00,,---,0.00,VWS V14.01,2013-05-31 09:20:00,
2013-05-31 03:21:00,45.1,21.1,30.03,WNW,294,3.6,4.0,38,0.00,,---,0.00,VWS V14.01,2013-05-31 09:21:00,
2013-05-31 03:25:00,45.1,21.1,30.03,WSW,253,4.0,4.0,38,0.00,,---,0.00,VWS V14.01,2013-05-31 09:25:00,
2013-05-31 03:26:00,45.1,21.7,30.03,WNW,300,3.1,4.0,39,0.00,,---,0.00,VWS V14.01,2013-05-31 09:26:00,
2013-05-31 03:27:00,45.0,21.5,30.03,West,279,3.6,4.0,39,0.00,,---,0.00,VWS V14.01,2013-05-31 09:27:00,
2013-05-31 03:30:00,45.0,21.5,30.03,West,277,0.0,4.0,39,0.00,,---,0.00,VWS V14.01,2013-05-31 09:30:00,
2013-05-31 03:32:00,45.0,20.9,30.03,North,6,2.7,4.0,38,0.00,,---,0.00,VWS V14.01,2013-05-31 09:32:00,
2013-05-31 03:35:00,44.8,20.7,30.03,NW,310,2.7,4.0,38,0.00,,---,0.00,VWS V14.01,2013-05-31 09:35:00,
2013-05-31 03:36:00,44.8,21.4,30.03,NW,320,3.6,4.0,39,0.00,,---,0.00,VWS V14.01,2013-05-31 09:36:00,
2013-05-31 03:37:00,44.8,21.4,30.03,NW,318,3.6,4.9,39,0.00,,---,0.00,VWS V14.01,2013-05-31 09:37:00,
2013-05-31 03:40:00,45.0,21.5,30.03,WSW,241,2.7,6.7,39,0.00,,---,0.00,VWS V14.01,2013-05-31 09:40:00,
2013-05-31 03:41:00,45.0,21.5,30.03,West,280,6.3,6.7,39,0.00,,---,0.00,VWS V14.01,2013-05-31 09:41:00,
2013-05-31 03:42:00,44.8,20.7,30.03,West,277,2.2,6.7,38,0.00,,---,0.00,VWS V14.01,2013-05-31 09:42:00,
2013-05-31 03:45:00,44.8,20.7,30.03,West,278,4.9,6.7,38,0.00,,---,0.00,VWS V14.01,2013-05-31 09:45:00,
2013-05-31 03:46:00,44.8,20.7,30.03,West,275,4.0,5.8,38,0.00,,---,0.00,VWS V14.01,2013-05-31 09:46:00,
2013-05-31 03:47:00,44.8,21.4,30.03,WSW,248,2.2,5.8,39,0.00,,---,0.00,VWS V14.01,2013-05-31 09:47:00,
2013-05-31 03:48:00,44.8,21.4,30.03,West,266,3.6,5.8,39,0.00,,---,0.00,VWS V14.01,2013-05-31 09:48:00,
2013-05-31 03:50:00,44.8,21.4,30.03,WNW,296,2.7,5.8,39,0.00,,---,0.00,VWS V14.01,2013-05-31 09:50:00,
2013-05-31 03:51:00,44.8,21.4,30.03,WNW,295,2.2,5.8,39,0.00,,---,0.00,VWS V14.01,2013-05-31 09:51:00,
2013-05-31 03:52:00,44.8,21.4,30.03,West,281,2.7,5.8,39,0.00,,---,0.00,VWS V14.01,2013-05-31 09:52:00,
2013-05-31 03:53:00,44.8,21.4,30.03,SSE,150,4.0,5.8,39,0.00,,---,0.00,VWS V14.01,2013-05-31 09:53:00,
2013-05-31 03:56:00,44.8,21.4,30.03,WNW,282,5.4,6.3,39,0.00,,---,0.00,VWS V14.01,2013-05-31 09:56:00,
2013-05-31 03:57:00,44.8,21.4,30.03,West,272,5.8,6.3,39,0.00,,---,0.00,VWS V14.01,2013-05-31 09:57:00,
2013-05-31 03:58:00,44.8,21.4,30.03,West,266,2.2,6.3,39,0.00,,---,0.00,VWS V14.01,2013-05-31 09:58:00,
2013-05-31 04:01:00,44.8,21.4,30.03,North,357,3.1,3.1,39,0.00,,---,0.00,VWS V14.01,2013-05-31 10:01:00,
2013-05-31 04:02:00,44.8,21.4,30.03,West,271,2.7,3.6,39,0.00,,---,0.00,VWS V14.01,2013-05-31 10:02:00,
2013-05-31 04:03:00,44.8,21.4,30.03,NW,306,3.6,4.9,39,0.00,,---,0.00,VWS V14.01,2013-05-31 10:03:00,
2013-05-31 04:06:00,44.8,21.4,30.03,SW,231,0.0,4.9,39,0.00,,---,0.00,VWS V14.01,2013-05-31 10:06:00,
2013-05-31 04:07:00,44.8,21.4,30.03,West,268,2.7,4.9,39,0.00,,---,0.00,VWS V14.01,2013-05-31 10:07:00,
2013-05-31 04:08:00,44.6,21.2,30.03,WNW,282,3.1,4.9,39,0.00,,---,0.00,VWS V14.01,2013-05-31 10:08:00,
2013-05-31 04:11:00,44.6,21.2,30.03,WNW,286,0.0,4.9,39,0.00,,---,0.00,VWS V14.01,2013-05-31 10:11:00,
2013-05-31 04:12:00,44.6,21.2,30.03,WSW,243,2.7,4.9,39,0.00,,---,0.00,VWS V14.01,2013-05-31 10:12:00,
2013-05-31 04:14:00,44.6,21.2,30.03,SW,214,2.7,4.9,39,0.00,,---,0.00,VWS V14.01,2013-05-31 10:14:00,
2013-05-31 04:16:00,44.6,21.2,30.03,West,281,0.0,2.7,39,0.00,,---,0.00,VWS V14.01,2013-05-31 10:16:00,
2013-05-31 04:17:00,44.6,21.2,30.03,North,5,4.0,4.0,39,0.00,,---,0.00,VWS V14.01,2013-05-31 10:17:00,
2013-05-31 04:18:00,44.6,21.2,30.03,West,278,4.9,4.9,39,0.00,,---,0.00,VWS V14.01,2013-05-31 10:18:00,
2013-05-31 04:19:00,44.6,21.2,30.03,West,275,4.0,4.9,39,0.00,,---,0.00,VWS V14.01,2013-05-31 10:19:00,
2013-05-31 04:21:00,44.6,21.2,30.03,WNW,292,4.0,5.8,39,0.00,,---,0.00,VWS V14.01,2013-05-31 10:21:00,
2013-05-31 04:22:00,44.6,21.2,30.03,WNW,303,4.0,5.8,39,0.00,,---,0.00,VWS V14.01,2013-05-31 10:22:00,
2013-05-31 04:23:00,44.6,21.2,30.03,WNW,295,4.5,5.8,39,0.00,,---,0.00,VWS V14.01,2013-05-31 10:23:00,
2013-05-31 04:24:00,44.6,21.2,30.03,WNW,291,4.9,5.8,39,0.00,,---,0.00,VWS V14.01,2013-05-31 10:24:00,
2013-05-31 04:27:00,44.6,21.2,30.03,WNW,289,3.1,5.8,39,0.00,,---,0.00,VWS V14.01,2013-05-31 10:27:00,
2013-05-31 04:28:00,44.6,21.2,30.03,WNW,282,3.6,5.8,39,0.00,,---,0.00,VWS V14.01,2013-05-31 10:28:00,
2013-05-31 04:29:00,44.4,21.0,30.03,South,169,3.1,5.8,39,0.00,,---,0.00,VWS V14.01,2013-05-31 10:29:00,
2013-05-31 04:32:00,44.4,21.6,30.03,WNW,283,4.0,4.0,40,0.00,,---,0.00,VWS V14.01,2013-05-31 10:32:00,
2013-05-31 04:33:00,44.4,21.6,30.03,WNW,285,3.6,4.0,40,0.00,,---,0.00,VWS V14.01,2013-05-31 10:33:00,
2013-05-31 04:35:00,44.4,21.6,30.03,WNW,288,0.0,5.4,40,0.00,,---,0.00,VWS V14.01,2013-05-31 10:35:00,
2013-05-31 04:37:00,44.2,21.5,30.03,West,273,4.9,5.4,40,0.00,,---,0.00,VWS V14.01,2013-05-31 10:37:00,
2013-05-31 04:38:00,44.4,21.6,30.03,West,275,4.9,5.4,40,0.00,,---,0.00,VWS V14.01,2013-05-31 10:38:00,
2013-05-31 04:39:00,44.2,21.5,30.03,WNW,289,2.7,5.4,40,0.00,,---,0.00,VWS V14.01,2013-05-31 10:39:00,
2013-05-31 04:40:00,44.2,21.5,30.03,SW,217,3.6,5.4,40,0.00,,---,0.00,VWS V14.01,2013-05-31 10:40:00,
2013-05-31 04:42:00,44.2,21.5,30.03,West,275,2.2,5.4,40,0.00,,---,0.00,VWS V14.01,2013-05-31 10:42:00,
2013-05-31 04:43:00,44.2,21.5,30.03,SW,225,4.0,5.4,40,0.00,,---,0.00,VWS V14.01,2013-05-31 10:43:00,
2013-05-31 04:44:00,44.2,21.5,30.03,West,270,3.1,5.4,40,0.00,,---,0.00,VWS V14.01,2013-05-31 10:44:00,
2013-05-31 04:45:00,44.2,21.5,30.03,West,275,4.0,5.4,40,0.00,,---,0.00,VWS V14.01,2013-05-31 10:45:00,
2013-05-31 04:47:00,44.2,22.0,30.03,WNW,284,4.0,4.0,41,0.00,,---,0.00,VWS V14.01,2013-05-31 10:47:00,
2013-05-31 04:48:00,44.1,21.3,30.03,WNW,289,2.7,4.0,40,0.00,,---,0.00,VWS V14.01,2013-05-31 10:48:00,
2013-05-31 04:50:00,44.1,21.3,30.03,WSW,256,5.8,5.8,40,0.00,,---,0.00,VWS V14.01,2013-05-31 10:50:00,
2013-05-31 04:52:00,44.1,21.3,30.03,West,277,3.6,5.8,40,0.00,,---,0.00,VWS V14.01,2013-05-31 10:52:00,
2013-05-31 04:53:00,44.1,21.9,30.03,SSW,206,3.6,5.8,41,0.00,,---,0.00,VWS V14.01,2013-05-31 10:53:00,
2013-05-31 04:54:00,44.1,21.9,30.03,SSW,210,3.6,5.8,41,0.00,,---,0.00,VWS V14.01,2013-05-31 10:54:00,
2013-05-31 04:55:00,44.1,21.9,30.03,West,270,4.0,5.8,41,0.00,,---,0.00,VWS V14.01,2013-05-31 10:55:00,
2013-05-31 04:57:00,44.1,21.9,30.03,West,268,3.6,5.8,41,0.00,,---,0.00,VWS V14.01,2013-05-31 10:57:00,
2013-05-31 04:59:00,44.1,21.9,30.03,WNW,293,2.2,5.8,41,0.00,,---,0.00,VWS V14.01,2013-05-31 10:59:00,
2013-05-31 05:00:00,44.1,21.9,30.03,West,268,3.1,5.8,41,0.00,,---,0.00,VWS V14.01,2013-05-31 11:00:00,
2013-05-31 05:01:00,44.1,21.9,30.03,SSW,208,3.6,3.6,41,0.00,,---,0.00,VWS V14.01,2013-05-31 11:01:00,
2013-05-31 05:03:00,44.1,21.9,30.03,WSW,241,3.1,3.6,41,0.00,,---,0.00,VWS V14.01,2013-05-31 11:03:00,
2013-05-31 05:04:00,43.9,21.7,30.03,SW,231,4.9,4.9,41,0.00,,---,0.00,VWS V14.01,2013-05-31 11:04:00,
2013-05-31 05:05:00,44.1,21.9,30.03,WSW,237,3.1,6.3,41,0.00,,---,0.00,VWS V14.01,2013-05-31 11:05:00,
2013-05-31 05:06:00,44.1,21.9,30.03,SSW,210,3.1,6.3,41,0.00,,---,0.00,VWS V14.01,2013-05-31 11:06:00,
2013-05-31 05:08:00,44.1,21.9,30.03,WNW,292,4.0,8.3,41,0.00,,---,0.00,VWS V14.01,2013-05-31 11:08:00,
2013-05-31 05:09:00,44.1,21.9,30.03,WNW,298,6.3,8.3,41,0.00,,---,0.00,VWS V14.01,2013-05-31 11:09:00,
2013-05-31 05:10:00,44.1,21.3,30.03,West,264,4.5,8.3,40,0.00,,---,0.00,VWS V14.01,2013-05-31 11:10:00,
2013-05-31 05:11:00,44.1,21.3,30.03,West,278,4.0,8.3,40,0.00,,---,0.00,VWS V14.01,2013-05-31 11:11:00,
2013-05-31 05:14:00,44.1,21.3,30.03,WNW,282,4.0,8.3,40,0.00,,---,0.00,VWS V14.01,2013-05-31 11:14:00,
2013-05-31 05:16:00,44.1,21.3,30.03,WNW,283,4.9,4.9,40,0.00,,---,0.00,VWS V14.01,2013-05-31 11:16:00,
2013-05-31 05:19:00,44.1,21.3,30.03,WSW,257,2.7,6.3,40,0.00,,---,0.00,VWS V14.01,2013-05-31 11:19:00,
2013-05-31 05:20:00,44.1,21.3,30.03,SW,231,3.1,6.3,40,0.00,,---,0.00,VWS V14.01,2013-05-31 11:20:00,
2013-05-31 05:21:00,44.1,21.3,30.03,SW,217,3.1,6.3,40,0.00,,---,0.00,VWS V14.01,2013-05-31 11:21:00,
2013-05-31 05:24:00,44.1,21.3,30.03,SW,220,3.6,6.3,40,0.00,,---,0.00,VWS V14.01,2013-05-31 11:24:00,
2013-05-31 05:25:00,44.1,21.3,30.03,West,262,5.4,6.3,40,0.00,,---,0.00,VWS V14.01,2013-05-31 11:25:00,
2013-05-31 05:26:00,44.1,21.3,30.03,West,265,4.0,6.3,40,0.00,,---,0.00,VWS V14.01,2013-05-31 11:26:00,
2013-05-31 05:29:00,44.1,21.3,30.03,SSW,211,3.1,6.3,40,0.00,,---,0.00,VWS V14.01,2013-05-31 11:29:00,
2013-05-31 05:30:00,44.1,21.3,30.03,SSW,202,5.4,6.3,40,0.00,,---,0.00,VWS V14.01,2013-05-31 11:30:00,
2013-05-31 05:31:00,44.1,21.3,30.03,SSW,203,4.0,5.8,40,0.00,,---,0.00,VWS V14.01,2013-05-31 11:31:00,
2013-05-31 05:34:00,44.1,21.3,30.03,SW,234,3.1,5.8,40,0.00,,---,0.00,VWS V14.01,2013-05-31 11:34:00,
2013-05-31 05:35:00,44.1,21.3,30.03,WSW,243,2.7,5.8,40,0.00,,---,0.00,VWS V14.01,2013-05-31 11:35:00,
2013-05-31 05:36:00,44.1,21.3,30.03,WSW,244,2.7,5.8,40,0.00,,---,0.00,VWS V14.01,2013-05-31 11:36:00,
2013-05-31 05:39:00,44.1,21.3,30.03,SW,220,3.6,5.8,40,0.00,,---,0.00,VWS V14.01,2013-05-31 11:39:00,
2013-05-31 05:41:00,44.1,21.3,30.03,South,182,3.6,5.8,40,0.00,,---,0.00,VWS V14.01,2013-05-31 11:41:00,
2013-05-31 05:44:00,44.1,21.3,30.03,SSW,194,4.0,5.8,40,0.00,,---,0.00,VWS V14.01,2013-05-31 11:44:00,
2013-05-31 05:46:00,44.1,21.3,30.03,West,274,2.7,3.6,40,0.00,,---,0.00,VWS V14.01,2013-05-31 11:46:00,
2013-05-31 05:47:00,44.1,21.3,30.03,West,276,3.6,3.6,40,0.00,,---,0.00,VWS V14.01,2013-05-31 11:47:00,
2013-05-31 05:49:00,44.1,21.3,30.03,West,275,0.0,3.6,40,0.00,,---,0.00,VWS V14.01,2013-05-31 11:49:00,
2013-05-31 05:51:00,44.1,21.3,30.03,West,275,0.0,3.6,40,0.00,,---,0.00,VWS V14.01,2013-05-31 11:51:00,
2013-05-31 05:52:00,44.1,21.3,30.03,West,264,2.7,3.6,40,0.00,,---,0.00,VWS V14.01,2013-05-31 11:52:00,
2013-05-31 05:54:00,44.1,21.3,30.03,North,10,2.7,4.9,40,0.00,,---,0.00,VWS V14.01,2013-05-31 11:54:00,
2013-05-31 05:56:00,44.1,21.3,30.03,SW,233,3.1,4.9,40,0.00,,---,0.00,VWS V14.01,2013-05-31 11:56:00,
2013-05-31 05:57:00,44.1,21.3,30.03,WNW,293,0.0,4.9,40,0.00,,---,0.00,VWS V14.01,2013-05-31 11:57:00,
2013-05-31 06:00:00,44.1,21.3,30.03,West,278,0.0,4.9,40,0.00,,---,0.00,VWS V14.01,2013-05-31 12:00:00,
2013-05-31 06:01:00,44.1,21.3,30.03,West,278,0.0,0.0,40,0.00,,---,0.00,VWS V14.01,2013-05-31 12:01:00,
2013-05-31 06:03:00,44.1,21.3,30.03,West,278,0.0,0.0,40,0.00,,---,0.00,VWS V14.01,2013-05-31 12:03:00,
2013-05-31 06:04:00,44.1,21.3,30.03,West,278,0.0,0.0,40,0.00,,---,0.00,VWS V14.01,2013-05-31 12:04:00,
2013-05-31 06:05:00,44.1,21.9,30.03,West,278,0.0,0.0,41,0.00,,---,0.00,VWS V14.01,2013-05-31 12:05:00,
2013-05-31 06:06:00,43.9,21.7,30.03,West,278,0.0,0.0,41,0.00,,---,0.00,VWS V14.01,2013-05-31 12:06:00,
2013-05-31 06:08:00,43.9,21.7,30.03,West,277,0.0,0.0,41,0.00,,---,0.00,VWS V14.01,2013-05-31 12:08:00,
2013-05-31 06:09:00,43.9,21.7,30.03,West,277,0.0,0.0,41,0.00,,---,0.00,VWS V14.01,2013-05-31 12:09:00,
2013-05-31 06:10:00,43.9,21.7,30.03,West,273,2.2,2.2,41,0.00,,---,0.00,VWS V14.01,2013-05-31 12:10:00,
2013-05-31 06:11:00,43.9,21.7,30.03,West,262,2.7,2.7,41,0.00,,---,0.00,VWS V14.01,2013-05-31 12:11:00,
2013-05-31 06:13:00,43.9,21.7,30.03,SW,235,2.2,2.7,41,0.00,,---,0.00,VWS V14.01,2013-05-31 12:13:00,
2013-05-31 06:14:00,43.9,21.7,30.03,WSW,238,2.7,2.7,41,0.00,,---,0.00,VWS V14.01,2013-05-31 12:14:00,
2013-05-31 06:15:00,43.9,21.1,30.03,WNW,286,2.7,3.1,40,0.00,,---,0.00,VWS V14.01,2013-05-31 12:15:00,
2013-05-31 06:16:00,43.9,21.7,30.03,WNW,285,2.7,3.6,41,0.00,,---,0.00,VWS V14.01,2013-05-31 12:16:00,
2013-05-31 06:19:00,43.9,21.1,30.03,WNW,284,2.2,3.6,40,0.00,,---,0.00,VWS V14.01,2013-05-31 12:19:00,
2013-05-31 06:20:00,43.9,21.1,30.03,WNW,284,0.0,3.6,40,0.00,,---,0.00,VWS V14.01,2013-05-31 12:20:00,
2013-05-31 06:21:00,43.9,21.1,30.03,WNW,284,0.0,3.6,40,0.00,,---,0.00,VWS V14.01,2013-05-31 12:21:00,
2013-05-31 06:22:00,43.9,21.1,30.03,WNW,284,0.0,3.6,40,0.00,,---,0.00,VWS V14.01,2013-05-31 12:22:00,
2013-05-31 06:24:00,44.1,21.9,30.03,WNW,298,2.7,3.6,41,0.00,,---,0.00,VWS V14.01,2013-05-31 12:24:00,
2013-05-31 06:25:00,43.9,21.7,30.03,WNW,301,0.0,3.6,41,0.00,,---,0.00,VWS V14.01,2013-05-31 12:25:00,
2013-05-31 06:27:00,43.9,21.7,30.03,WNW,301,0.0,3.6,41,0.00,,---,0.00,VWS V14.01,2013-05-31 12:27:00,
2013-05-31 06:29:00,43.9,21.7,30.03,South,169,2.7,3.6,41,0.00,,---,0.00,VWS V14.01,2013-05-31 12:29:00,
2013-05-31 06:30:00,43.9,21.7,30.03,South,169,0.0,3.6,41,0.00,,---,0.00,VWS V14.01,2013-05-31 12:30:00,
2013-05-31 06:31:00,43.9,21.7,30.03,South,169,0.0,0.0,41,0.00,,---,0.00,VWS V14.01,2013-05-31 12:31:00,
2013-05-31 06:32:00,43.9,21.7,30.06,NNW,333,2.2,3.6,41,0.00,,---,0.00,VWS V14.01,2013-05-31 12:32:00,
2013-05-31 06:34:00,43.9,21.7,30.06,NNW,328,0.0,3.6,41,0.00,,---,0.00,VWS V14.01,2013-05-31 12:34:00,
2013-05-31 06:35:00,43.9,21.7,30.06,NNW,328,0.0,3.6,41,0.00,,---,0.00,VWS V14.01,2013-05-31 12:35:00,
2013-05-31 06:36:00,44.1,21.9,30.06,NW,323,0.0,3.6,41,0.00,,---,0.00,VWS V14.01,2013-05-31 12:36:00,
2013-05-31 06:37:00,44.1,21.9,30.06,WNW,299,2.2,3.6,41,0.00,,---,0.00,VWS V14.01,2013-05-31 12:37:00,
2013-05-31 06:39:00,44.1,21.9,30.06,South,182,2.2,3.6,41,0.00,,---,0.00,VWS V14.01,2013-05-31 12:39:00,
2013-05-31 06:40:00,44.1,21.9,30.06,South,182,2.7,3.6,41,0.00,,---,0.00,VWS V14.01,2013-05-31 12:40:00,
2013-05-31 06:41:00,44.1,21.9,30.06,South,182,0.0,3.6,41,0.00,,---,0.00,VWS V14.01,2013-05-31 12:41:00,
2013-05-31 06:42:00,44.1,21.9,30.06,South,182,0.0,3.6,41,0.00,,---,0.00,VWS V14.01,2013-05-31 12:42:00,
2013-05-31 06:43:00,44.1,21.9,30.06,South,182,0.0,3.6,41,0.00,,---,0.00,VWS V14.01,2013-05-31 12:43:00,
2013-05-31 06:44:00,44.1,21.9,30.06,South,182,0.0,3.6,41,0.00,,---,0.00,VWS V14.01,2013-05-31 12:44:00,
2013-05-31 06:45:00,44.1,21.9,30.06,South,182,0.0,3.6,41,0.00,,---,0.00,VWS V14.01,2013-05-31 12:45:00,
2013-05-31 06:47:00,44.1,21.9,30.06,South,182,0.0,0.0,41,0.00,,---,0.00,VWS V14.01,2013-05-31 12:47:00,
2013-05-31 06:48:00,44.1,21.9,30.06,South,182,0.0,2.2,41,0.00,,---,0.00,VWS V14.01,2013-05-31 12:48:00,
2013-05-31 06:50:00,44.1,21.9,30.06,SW,232,3.6,3.6,41,0.00,,---,0.00,VWS V14.01,2013-05-31 12:50:00,
2013-05-31 06:52:00,44.1,21.9,30.06,WSW,243,2.7,4.0,41,0.00,,---,0.00,VWS V14.01,2013-05-31 12:52:00,
2013-05-31 06:53:00,44.1,21.9,30.06,WSW,245,2.2,4.0,41,0.00,,---,0.00,VWS V14.01,2013-05-31 12:53:00,
2013-05-31 06:55:00,44.1,21.9,30.06,WSW,254,2.7,4.0,41,0.00,,---,0.00,VWS V14.01,2013-05-31 12:55:00,
2013-05-31 06:57:00,44.1,21.9,30.06,WNW,284,2.7,4.0,41,0.00,,---,0.00,VWS V14.01,2013-05-31 12:57:00,
2013-05-31 06:58:00,44.1,21.9,30.06,WNW,284,0.0,4.0,41,0.00,,---,0.00,VWS V14.01,2013-05-31 12:58:00,
2013-05-31 07:00:00,44.1,21.9,30.06,WSW,256,2.2,4.0,41,0.00,,---,0.00,VWS V14.01,2013-05-31 13:00:00,
2013-05-31 07:03:00,44.2,21.5,30.06,WSW,254,2.7,3.6,40,0.00,,---,0.00,VWS V14.01,2013-05-31 13:03:00,
2013-05-31 07:05:00,44.2,22.0,30.06,SSW,195,3.1,4.0,41,0.00,,---,0.00,VWS V14.01,2013-05-31 13:05:00,
2013-05-31 07:06:00,44.2,21.5,30.06,SSW,209,3.6,6.7,40,0.00,,---,0.00,VWS V14.01,2013-05-31 13:06:00,
2013-05-31 07:08:00,44.2,21.5,30.06,SW,214,2.2,6.7,40,0.00,,---,0.00,VWS V14.01,2013-05-31 13:08:00,
2013-05-31 07:09:00,44.2,21.5,30.06,West,265,4.0,6.7,40,0.00,,---,0.00,VWS V14.01,2013-05-31 13:09:00,
2013-05-31 07:10:00,44.2,21.5,30.06,West,265,2.7,6.7,40,0.00,,---,0.00,VWS V14.01,2013-05-31 13:10:00,
2013-05-31 07:11:00,44.2,21.5,30.06,West,265,0.0,6.7,40,0.00,,---,0.00,VWS V14.01,2013-05-31 13:11:00,
2013-05-31 07:13:00,44.4,22.2,30.06,SSW,213,4.0,6.7,41,0.00,,---,0.00,VWS V14.01,2013-05-31 13:13:00,
2013-05-31 07:15:00,44.2,21.5,30.06,North,353,4.0,6.7,40,0.00,,---,0.00,VWS V14.01,2013-05-31 13:15:00,
2013-05-31 07:16:00,44.4,22.2,30.06,West,271,2.7,4.0,41,0.00,,---,0.00,VWS V14.01,2013-05-31 13:16:00,
2013-05-31 07:18:00,44.4,21.6,30.06,WNW,298,3.6,5.4,40,0.00,,---,0.00,VWS V14.01,2013-05-31 13:18:00,
2013-05-31 07:19:00,44.4,21.6,30.06,WNW,283,4.0,5.4,40,0.00,,---,0.00,VWS V14.01,2013-05-31 13:19:00,
2013-05-31 07:20:00,44.4,22.2,30.06,West,267,2.7,5.4,41,0.00,,---,0.00,VWS V14.01,2013-05-31 13:20:00,
2013-05-31 07:21:00,44.4,21.6,30.06,West,268,2.7,5.4,40,0.00,,---,0.00,VWS V14.01,2013-05-31 13:21:00,
2013-05-31 07:24:00,44.4,21.6,30.06,WNW,285,2.2,5.4,40,0.00,,---,0.00,VWS V14.01,2013-05-31 13:24:00,
2013-05-31 07:25:00,44.4,22.2,30.06,WSW,242,3.1,5.4,41,0.00,,---,0.00,VWS V14.01,2013-05-31 13:25:00,
2013-05-31 07:26:00,44.4,22.2,30.06,SW,219,3.1,5.4,41,0.00,,---,0.00,VWS V14.01,2013-05-31 13:26:00,
2013-05-31 07:29:00,44.4,21.6,30.06,South,191,2.2,5.4,40,0.00,,---,0.00,VWS V14.01,2013-05-31 13:29:00,
2013-05-31 07:30:00,44.4,22.2,30.06,SW,217,2.7,5.4,41,0.00,,---,0.00,VWS V14.01,2013-05-31 13:30:00,
2013-05-31 07:31:00,44.4,22.2,30.06,SW,222,2.7,2.7,41,0.00,,---,0.00,VWS V14.01,2013-05-31 13:31:00,
2013-05-31 07:34:00,44.4,22.2,30.06,WNW,293,2.2,4.9,41,0.00,,---,0.00,VWS V14.01,2013-05-31 13:34:00,
2013-05-31 07:35:00,44.2,22.0,30.06,WNW,283,3.6,4.9,41,0.00,,---,0.00,VWS V14.01,2013-05-31 13:35:00,
2013-05-31 07:36:00,44.4,22.2,30.06,WNW,283,2.2,4.9,41,0.00,,---,0.00,VWS V14.01,2013-05-31 13:36:00,
2013-05-31 07:39:00,44.4,22.2,30.06,West,276,6.3,6.3,41,0.00,,---,0.00,VWS V14.01,2013-05-31 13:39:00,
2013-05-31 07:41:00,44.4,22.2,30.06,WNW,293,3.1,6.3,41,0.00,,---,0.00,VWS V14.01,2013-05-31 13:41:00,
2013-05-31 07:42:00,44.4,21.6,30.06,WNW,293,2.2,6.3,40,0.00,,---,0.00,VWS V14.01,2013-05-31 13:42:00,
2013-05-31 07:44:00,44.4,22.2,30.06,WNW,293,0.0,6.3,41,0.00,,---,0.00,VWS V14.01,2013-05-31 13:44:00,
2013-05-31 07:45:00,44.4,22.2,30.06,WSW,242,2.7,6.3,41,0.00,,---,0.00,VWS V14.01,2013-05-31 13:45:00,
2013-05-31 07:46:00,44.4,22.2,30.06,WSW,254,0.0,2.7,41,0.00,,---,0.00,VWS V14.01,2013-05-31 13:46:00,
2013-05-31 07:47:00,44.4,22.2,30.09,WSW,257,0.0,2.7,41,0.00,,---,0.00,VWS V14.01,2013-05-31 13:47:00,
2013-05-31 07:49:00,44.4,22.2,30.09,South,189,3.1,3.1,41,0.00,,---,0.00,VWS V14.01,2013-05-31 13:49:00,
2013-05-31 07:50:00,44.4,22.2,30.09,SW,229,4.0,4.0,41,0.00,,---,0.00,VWS V14.01,2013-05-31 13:50:00,
2013-05-31 07:51:00,44.4,22.2,30.09,West,269,3.6,4.0,41,0.00,,---,0.00,VWS V14.01,2013-05-31 13:51:00,
2013-05-31 07:52:00,44.4,22.2,30.09,WNW,296,3.6,4.0,41,0.00,,---,0.00,VWS V14.01,2013-05-31 13:52:00,
2013-05-31 07:54:00,44.4,22.2,30.09,West,274,3.1,4.0,41,0.00,,---,0.00,VWS V14.01,2013-05-31 13:54:00,
2013-05-31 07:55:00,44.4,22.2,30.09,WSW,243,4.0,4.0,41,0.00,,---,0.00,VWS V14.01,2013-05-31 13:55:00,
2013-05-31 07:56:00,44.4,22.2,30.09,WSW,249,4.0,4.0,41,0.00,,---,0.00,VWS V14.01,2013-05-31 13:56:00,
2013-05-31 07:57:00,44.4,21.6,30.09,South,189,3.1,4.9,40,0.00,,---,0.00,VWS V14.01,2013-05-31 13:57:00,
2013-05-31 07:59:00,44.6,22.4,30.09,West,267,2.7,4.9,41,0.00,,---,0.00,VWS V14.01,2013-05-31 13:59:00,
2013-05-31 08:00:00,44.6,22.4,30.09,West,280,0.0,4.9,41,0.00,,---,0.00,VWS V14.01,2013-05-31 14:00:00,
2013-05-31 08:01:00,44.6,22.4,30.09,South,176,4.0,4.0,41,0.00,,---,0.00,VWS V14.01,2013-05-31 14:01:00,
2013-05-31 08:02:00,44.4,22.2,30.09,WSW,256,3.1,4.0,41,0.00,,---,0.00,VWS V14.01,2013-05-31 14:02:00,
2013-05-31 08:04:00,44.4,22.2,30.09,WNW,292,2.7,4.0,41,0.00,,---,0.00,VWS V14.01,2013-05-31 14:04:00,
2013-05-31 08:05:00,44.6,21.8,30.09,NW,304,0.0,4.0,40,0.00,,---,0.00,VWS V14.01,2013-05-31 14:05:00,
2013-05-31 08:06:00,44.6,21.8,30.09,NW,304,0.0,4.0,40,0.00,,---,0.00,VWS V14.01,2013-05-31 14:06:00,
2013-05-31 08:07:00,44.6,21.8,30.09,NW,304,0.0,4.0,40,0.00,,---,0.00,VWS V14.01,2013-05-31 14:07:00,
2013-05-31 08:10:00,44.6,22.4,30.09,SSW,207,3.6,4.0,41,0.00,,---,0.00,VWS V14.01,2013-05-31 14:10:00,
2013-05-31 08:11:00,44.6,22.4,30.09,WSW,252,4.0,4.0,41,0.00,,---,0.00,VWS V14.01,2013-05-31 14:11:00,
2013-05-31 08:12:00,44.6,22.4,30.09,NW,314,3.1,4.0,41,0.00,,---,0.00,VWS V14.01,2013-05-31 14:12:00,
2013-05-31 08:15:00,44.6,21.8,30.09,West,278,2.7,4.0,40,0.00,,---,0.00,VWS V14.01,2013-05-31 14:15:00,
2013-05-31 08:16:00,44.6,21.8,30.09,NW,320,3.6,3.6,40,0.00,,---,0.00,VWS V14.01,2013-05-31 14:16:00,
2013-05-31 08:18:00,44.6,22.4,30.09,West,281,3.6,4.0,41,0.00,,---,0.00,VWS V14.01,2013-05-31 14:18:00,
2013-05-31 08:20:00,44.6,22.4,30.09,West,279,0.0,4.0,41,0.00,,---,0.00,VWS V14.01,2013-05-31 14:20:00,
2013-05-31 08:21:00,44.6,22.4,30.09,West,279,0.0,4.0,41,0.00,,---,0.00,VWS V14.01,2013-05-31 14:21:00,
2013-05-31 08:23:00,44.6,22.4,30.09,West,279,4.5,4.5,41,0.00,,---,0.00,VWS V14.01,2013-05-31 14:23:00,
2013-05-31 08:25:00,44.6,22.4,30.09,SSW,192,2.7,4.9,41,0.00,,---,0.00,VWS V14.01,2013-05-31 14:25:00,
2013-05-31 08:26:00,44.6,22.4,30.09,SW,223,3.6,4.9,41,0.00,,---,0.00,VWS V14.01,2013-05-31 14:26:00,
2013-05-31 08:27:00,44.6,22.9,30.09,SW,224,2.2,4.9,42,0.00,,---,0.00,VWS V14.01,2013-05-31 14:27:00,
2013-05-31 08:28:00,44.6,22.9,30.09,SW,224,3.1,4.9,42,0.00,,---,0.00,VWS V14.01,2013-05-31 14:28:00,
2013-05-31 08:30:00,44.6,23.5,30.09,WSW,238,2.2,4.9,43,0.00,,---,0.00,VWS V14.01,2013-05-31 14:30:00,
2013-05-31 08:32:00,44.6,22.4,30.09,West,272,3.6,5.4,41,0.00,,---,0.00,VWS V14.01,2013-05-31 14:32:00,
2013-05-31 08:33:00,44.6,22.4,30.09,West,267,3.1,5.4,41,0.00,,---,0.00,VWS V14.01,2013-05-31 14:33:00,
2013-05-31 08:35:00,44.8,22.5,30.09,WSW,257,5.4,5.4,41,0.00,,---,0.00,VWS V14.01,2013-05-31 14:35:00,
2013-05-31 08:37:00,44.8,22.5,30.09,SW,230,5.8,5.8,41,0.00,,---,0.00,VWS V14.01,2013-05-31 14:37:00,
2013-05-31 08:38:00,44.8,22.0,30.09,SW,233,4.0,6.3,40,0.00,,---,0.00,VWS V14.01,2013-05-31 14:38:00,
2013-05-31 08:39:00,44.8,22.0,30.09,West,272,5.8,6.3,40,0.00,,---,0.00,VWS V14.01,2013-05-31 14:39:00,
2013-05-31 08:40:00,44.8,22.5,30.09,West,265,3.6,6.3,41,0.00,,---,0.00,VWS V14.01,2013-05-31 14:40:00,
2013-05-31 08:42:00,44.8,22.5,30.09,WNW,284,3.1,6.3,41,0.00,,---,0.00,VWS V14.01,2013-05-31 14:42:00,
2013-05-31 08:43:00,44.8,22.5,30.09,WSW,244,3.1,6.3,41,0.00,,---,0.00,VWS V14.01,2013-05-31 14:43:00,
2013-05-31 08:44:00,44.8,22.5,30.09,WSW,240,3.1,6.3,41,0.00,,---,0.00,VWS V14.01,2013-05-31 14:44:00,
2013-05-31 08:45:00,44.8,22.5,30.09,WSW,256,3.1,6.3,41,0.00,,---,0.00,VWS V14.01,2013-05-31 14:45:00,
2013-05-31 08:47:00,44.8,22.0,30.09,West,272,2.7,4.9,40,0.00,,---,0.00,VWS V14.01,2013-05-31 14:47:00,
2013-05-31 08:49:00,44.8,22.5,30.09,WNW,286,2.7,4.9,41,0.00,,---,0.00,VWS V14.01,2013-05-31 14:49:00,
2013-05-31 08:51:00,45.0,22.7,30.09,SSW,197,5.4,5.8,41,0.00,,---,0.00,VWS V14.01,2013-05-31 14:51:00,
2013-05-31 08:52:00,45.0,22.7,30.09,WSW,243,5.4,5.8,41,0.00,,---,0.00,VWS V14.01,2013-05-31 14:52:00,
2013-05-31 08:53:00,45.0,22.7,30.09,SSW,205,3.6,5.8,41,0.00,,---,0.00,VWS V14.01,2013-05-31 14:53:00,
2013-05-31 08:54:00,45.0,22.7,30.09,West,278,3.6,5.8,41,0.00,,---,0.00,VWS V14.01,2013-05-31 14:54:00,
2013-05-31 08:56:00,45.0,22.1,30.09,West,259,4.0,5.8,40,0.00,,---,0.00,VWS V14.01,2013-05-31 14:56:00,
2013-05-31 08:57:00,45.0,22.7,30.09,SW,232,3.6,5.8,41,0.00,,---,0.00,VWS V14.01,2013-05-31 14:57:00,
2013-05-31 08:58:00,45.0,22.7,30.09,West,267,3.1,5.8,41,0.00,,---,0.00,VWS V14.01,2013-05-31 14:58:00,
2013-05-31 08:59:00,45.0,22.7,30.09,SSW,204,5.4,5.8,41,0.00,,---,0.00,VWS V14.01,2013-05-31 14:59:00,
2013-05-31 09:02:00,45.0,22.1,30.09,WSW,250,3.6,4.5,40,0.00,,---,0.00,VWS V14.01,2013-05-31 15:02:00,
2013-05-31 09:03:00,45.1,22.9,30.09,WSW,250,3.1,4.5,41,0.00,,---,0.00,VWS V14.01,2013-05-31 15:03:00,
2013-05-31 09:04:00,45.0,22.7,30.09,South,190,2.7,6.3,41,0.00,,---,0.00,VWS V14.01,2013-05-31 15:04:00,
2013-05-31 09:08:00,45.1,22.3,30.09,West,279,2.7,6.3,40,0.00,,---,0.00,VWS V14.01,2013-05-31 15:08:00,
2013-05-31 09:10:00,45.1,22.3,30.09,West,270,2.2,6.3,40,0.00,,---,0.00,VWS V14.01,2013-05-31 15:10:00,
2013-05-31 09:13:00,45.1,22.9,30.09,SSW,209,0.0,6.3,41,0.00,,---,0.00,VWS V14.01,2013-05-31 15:13:00,
2013-05-31 09:15:00,45.1,22.9,30.09,WNW,287,2.7,6.3,41,0.00,,---,0.00,VWS V14.01,2013-05-31 15:15:00,
2013-05-31 09:18:00,45.1,22.3,30.09,WNW,283,2.7,4.0,40,0.00,,---,0.00,VWS V14.01,2013-05-31 15:18:00,
2013-05-31 09:19:00,45.1,22.3,30.09,West,276,3.6,4.0,40,0.00,,---,0.00,VWS V14.01,2013-05-31 15:19:00,
2013-05-31 09:20:00,45.1,22.3,30.09,West,273,2.7,4.0,40,0.00,,---,0.00,VWS V14.01,2013-05-31 15:20:00,
2013-05-31 09:23:00,45.1,22.3,30.09,SW,221,2.7,4.0,40,0.00,,---,0.00,VWS V14.01,2013-05-31 15:23:00,
2013-05-31 09:24:00,45.1,22.9,30.09,WSW,243,3.1,4.0,41,0.00,,---,0.00,VWS V14.01,2013-05-31 15:24:00,
2013-05-31 09:25:00,45.1,22.9,30.09,WSW,250,2.7,4.0,41,0.00,,---,0.00,VWS V14.01,2013-05-31 15:25:00,
2013-05-31 09:26:00,45.1,22.9,30.09,WSW,240,3.6,4.0,41,0.00,,---,0.00,VWS V14.01,2013-05-31 15:26:00,
2013-05-31 09:28:00,45.1,22.9,30.09,SW,233,3.1,4.0,41,0.00,,---,0.00,VWS V14.01,2013-05-31 15:28:00,
2013-05-31 09:29:00,45.1,22.9,30.09,SW,233,2.7,4.0,41,0.00,,---,0.00,VWS V14.01,2013-05-31 15:29:00,
2013-05-31 09:31:00,45.1,22.9,30.09,West,273,3.6,3.6,41,0.00,,---,0.00,VWS V14.01,2013-05-31 15:31:00,
2013-05-31 09:33:00,45.1,22.9,30.09,West,265,0.0,3.6,41,0.00,,---,0.00,VWS V14.01,2013-05-31 15:33:00,
2013-05-31 09:34:00,45.1,22.9,30.09,West,265,2.7,3.6,41,0.00,,---,0.00,VWS V14.01,2013-05-31 15:34:00,
2013-05-31 09:35:00,45.1,22.9,30.09,West,265,2.2,3.6,41,0.00,,---,0.00,VWS V14.01,2013-05-31 15:35:00,
2013-05-31 09:36:00,45.3,23.0,30.09,WSW,254,2.7,3.6,41,0.00,,---,0.00,VWS V14.01,2013-05-31 15:36:00,
2013-05-31 09:38:00,45.3,23.0,30.09,South,190,2.7,4.0,41,0.00,,---,0.00,VWS V14.01,2013-05-31 15:38:00,
2013-05-31 09:39:00,45.3,23.0,30.09,SSW,196,2.2,4.0,41,0.00,,---,0.00,VWS V14.01,2013-05-31 15:39:00,
2013-05-31 09:40:00,45.3,23.0,30.09,West,267,3.6,5.4,41,0.00,,---,0.00,VWS V14.01,2013-05-31 15:40:00,
2013-05-31 09:41:00,45.3,23.0,30.09,SW,234,2.7,5.4,41,0.00,,---,0.00,VWS V14.01,2013-05-31 15:41:00,
2013-05-31 09:42:00,45.3,23.0,30.09,WSW,254,0.0,5.4,41,0.00,,---,0.00,VWS V14.01,2013-05-31 15:42:00,
2013-05-31 09:44:00,45.3,23.0,30.09,WSW,255,0.0,5.4,41,0.00,,---,0.00,VWS V14.01,2013-05-31 15:44:00,
2013-05-31 09:45:00,45.5,23.2,30.09,WSW,243,3.1,5.4,41,0.00,,---,0.00,VWS V14.01,2013-05-31 15:45:00,
2013-05-31 09:46:00,45.5,22.6,30.09,SSW,199,2.2,4.9,40,0.00,,---,0.00,VWS V14.01,2013-05-31 15:46:00,
2013-05-31 09:48:00,45.5,23.2,30.09,SSW,207,0.0,4.9,41,0.00,,---,0.00,VWS V14.01,2013-05-31 15:48:00,
2013-05-31 09:49:00,45.5,23.2,30.09,SW,236,3.1,4.9,41,0.00,,---,0.00,VWS V14.01,2013-05-31 15:49:00,
2013-05-31 09:50:00,45.5,23.2,30.09,West,277,2.7,4.9,41,0.00,,---,0.00,VWS V14.01,2013-05-31 15:50:00,
2013-05-31 09:51:00,45.7,22.8,30.09,WNW,287,3.1,4.9,40,0.00,,---,0.00,VWS V14.01,2013-05-31 15:51:00,
2013-05-31 09:53:00,45.7,22.8,30.09,West,270,4.0,4.9,40,0.00,,---,0.00,VWS V14.01,2013-05-31 15:53:00,
2013-05-31 09:54:00,45.7,22.8,30.09,SSW,193,6.3,6.3,40,0.00,,---,0.00,VWS V14.01,2013-05-31 15:54:00,
2013-05-31 09:55:00,45.7,22.8,30.09,SW,234,3.1,6.3,40,0.00,,---,0.00,VWS V14.01,2013-05-31 15:55:00,
2013-05-31 09:56:00,45.9,23.5,30.09,SW,235,3.6,6.3,41,0.00,,---,0.00,VWS V14.01,2013-05-31 15:56:00,
2013-05-31 09:57:00,45.9,22.9,30.09,SW,235,3.1,6.3,40,0.00,,---,0.00,VWS V14.01,2013-05-31 15:57:00,
2013-05-31 09:58:00,45.9,23.5,30.09,SW,231,3.6,6.3,41,0.00,,---,0.00,VWS V14.01,2013-05-31 15:58:00,
2013-05-31 09:59:00,45.9,22.9,30.09,SSW,203,3.1,6.3,40,0.00,,---,0.00,VWS V14.01,2013-05-31 15:59:00,
2013-05-31 10:00:00,45.9,23.5,30.09,SW,225,3.1,6.3,41,0.00,,---,0.00,VWS V14.01,2013-05-31 16:00:00,
2013-05-31 10:01:00,45.9,22.9,30.09,WSW,238,2.2,3.1,40,0.00,,---,0.00,VWS V14.01,2013-05-31 16:01:00,
2013-05-31 10:02:00,45.9,22.9,30.09,WSW,256,2.7,3.1,40,0.00,,---,0.00,VWS V14.01,2013-05-31 16:02:00,
2013-05-31 10:03:00,45.9,22.9,30.09,NW,308,3.6,3.6,40,0.00,,---,0.00,VWS V14.01,2013-05-31 16:03:00,
2013-05-31 10:05:00,45.9,22.9,30.09,West,277,2.7,3.6,40,0.00,,---,0.00,VWS V14.01,2013-05-31 16:05:00,
2013-05-31 10:06:00,45.9,22.9,30.09,West,275,0.0,3.6,40,0.00,,---,0.00,VWS V14.01,2013-05-31 16:06:00,
2013-05-31 10:07:00,45.9,23.5,30.09,WSW,254,2.7,3.6,41,0.00,,---,0.00,VWS V14.01,2013-05-31 16:07:00,
2013-05-31 10:09:00,46.0,23.1,30.09,WSW,253,2.7,3.6,40,0.00,,---,0.00,VWS V14.01,2013-05-31 16:09:00,
2013-05-31 10:10:00,46.0,23.7,30.09,WSW,253,2.7,3.6,41,0.00,,---,0.00,VWS V14.01,2013-05-31 16:10:00,
2013-05-31 10:11:00,46.0,23.7,30.09,SSW,200,2.7,3.6,41,0.00,,---,0.00,VWS V14.01,2013-05-31 16:11:00,
2013-05-31 10:12:00,46.0,23.7,30.09,South,185,2.2,4.0,41,0.00,,---,0.00,VWS V14.01,2013-05-31 16:12:00,
2013-05-31 10:14:00,46.0,23.7,30.09,SSW,203,3.6,4.0,41,0.00,,---,0.00,VWS V14.01,2013-05-31 16:14:00,
2013-05-31 10:15:00,46.0,23.1,30.09,SSW,203,2.7,4.0,40,0.00,,---,0.00,VWS V14.01,2013-05-31 16:15:00,
2013-05-31 10:16:00,46.0,23.1,30.09,SW,216,0.0,0.0,40,0.00,,---,0.00,VWS V14.01,2013-05-31 16:16:00,
2013-05-31 10:17:00,46.0,23.1,30.09,SW,235,3.1,3.1,40,0.00,,---,0.00,VWS V14.01,2013-05-31 16:17:00,
2013-05-31 10:19:00,46.0,23.1,30.09,SW,235,2.7,3.1,40,0.00,,---,0.00,VWS V14.01,2013-05-31 16:19:00,
2013-05-31 10:20:00,46.0,23.1,30.09,SW,235,2.7,3.1,40,0.00,,---,0.00,VWS V14.01,2013-05-31 16:20:00,
2013-05-31 10:21:00,46.0,23.1,30.09,SW,235,0.0,3.1,40,0.00,,---,0.00,VWS V14.01,2013-05-31 16:21:00,
2013-05-31 10:22:00,46.2,23.8,30.09,SW,235,0.0,3.1,41,0.00,,---,0.00,VWS V14.01,2013-05-31 16:22:00,
2013-05-31 10:24:00,46.2,23.8,30.09,SW,235,0.0,3.1,41,0.00,,---,0.00,VWS V14.01,2013-05-31 16:24:00,
2013-05-31 10:25:00,46.2,23.8,30.09,SW,235,0.0,3.1,41,0.00,,---,0.00,VWS V14.01,2013-05-31 16:25:00,
2013-05-31 10:26:00,46.2,23.8,30.09,North,357,5.4,5.4,41,0.00,,---,0.00,VWS V14.01,2013-05-31 16:26:00,
2013-05-31 10:28:00,46.2,24.4,30.09,West,268,3.1,5.4,42,0.00,,---,0.00,VWS V14.01,2013-05-31 16:28:00,
2013-05-31 10:29:00,46.2,23.8,30.09,West,275,2.7,5.4,41,0.00,,---,0.00,VWS V14.01,2013-05-31 16:29:00,
2013-05-31 10:30:00,46.2,23.8,30.09,WSW,254,4.0,5.4,41,0.00,,---,0.00,VWS V14.01,2013-05-31 16:30:00,
2013-05-31 10:31:00,46.2,24.4,30.09,WSW,254,0.0,2.7,42,0.00,,---,0.00,VWS V14.01,2013-05-31 16:31:00,
2013-05-31 10:33:00,46.0,24.2,30.11,West,268,3.1,3.1,42,0.00,,---,0.00,VWS V14.01,2013-05-31 16:33:00,
2013-05-31 10:34:00,46.0,24.2,30.11,West,268,0.0,3.1,42,0.00,,---,0.00,VWS V14.01,2013-05-31 16:34:00,
2013-05-31 10:35:00,46.0,24.2,30.11,West,268,0.0,3.1,42,0.00,,---,0.00,VWS V14.01,2013-05-31 16:35:00,
2013-05-31 10:36:00,46.0,24.2,30.11,NW,307,2.7,3.1,42,0.00,,---,0.00,VWS V14.01,2013-05-31 16:36:00,
2013-05-31 10:38:00,46.0,24.2,30.11,West,269,3.1,3.1,42,0.00,,---,0.00,VWS V14.01,2013-05-31 16:38:00,
2013-05-31 10:39:00,46.0,24.2,30.11,SSW,213,2.7,3.1,42,0.00,,---,0.00,VWS V14.01,2013-05-31 16:39:00,
2013-05-31 10:40:00,46.0,24.2,30.11,WNW,303,4.0,4.0,42,0.00,,---,0.00,VWS V14.01,2013-05-31 16:40:00,
2013-05-31 10:41:00,46.0,24.8,30.11,WNW,303,2.7,4.0,43,0.00,,---,0.00,VWS V14.01,2013-05-31 16:41:00,
2013-05-31 10:43:00,45.9,24.6,30.11,NW,308,2.7,4.9,43,0.00,,---,0.00,VWS V14.01,2013-05-31 16:43:00,
2013-05-31 10:45:00,45.9,24.6,30.11,WNW,283,2.7,4.9,43,0.00,,---,0.00,VWS V14.01,2013-05-31 16:45:00,
2013-05-31 10:46:00,45.7,24.5,30.11,NW,326,2.7,2.7,43,0.00,,---,0.00,VWS V14.01,2013-05-31 16:46:00,
2013-05-31 10:48:00,45.7,25.0,30.11,SW,234,2.7,3.1,44,0.00,,---,0.00,VWS V14.01,2013-05-31 16:48:00,
2013-05-31 10:50:00,45.5,24.3,30.11,WNW,302,4.0,4.0,43,0.00,,---,0.00,VWS V14.01,2013-05-31 16:50:00,
2013-05-31 10:51:00,45.5,24.3,30.11,NW,326,3.1,4.0,43,0.00,,---,0.00,VWS V14.01,2013-05-31 16:51:00,
2013-05-31 10:52:00,45.5,24.3,30.11,WNW,295,3.1,4.0,43,0.00,,---,0.00,VWS V14.01,2013-05-31 16:52:00,
2013-05-31 10:53:00,45.5,24.9,30.11,WNW,294,2.7,4.0,44,0.00,,---,0.00,VWS V14.01,2013-05-31 16:53:00,
2013-05-31 10:55:00,45.5,24.9,30.11,WNW,288,3.6,4.0,44,0.00,,---,0.00,VWS V14.01,2013-05-31 16:55:00,
2013-05-31 10:56:00,45.5,24.9,30.11,WNW,283,2.7,4.0,44,0.00,,---,0.00,VWS V14.01,2013-05-31 16:56:00,
2013-05-31 10:57:00,45.5,24.9,30.11,West,276,3.1,4.9,44,0.00,,---,0.00,VWS V14.01,2013-05-31 16:57:00,
2013-05-31 10:58:00,45.5,24.3,30.11,West,271,3.1,4.9,43,0.00,,---,0.00,VWS V14.01,2013-05-31 16:58:00,
2013-05-31 11:00:00,45.5,23.8,30.11,West,278,0.0,4.9,42,0.00,,---,0.00,VWS V14.01,2013-05-31 17:00:00,
2013-05-31 11:01:00,45.5,24.3,30.11,West,278,0.0,2.7,43,0.00,,---,0.00,VWS V14.01,2013-05-31 17:01:00,
2013-05-31 11:02:00,45.7,24.5,30.11,West,279,2.7,2.7,43,0.00,,---,0.00,VWS V14.01,2013-05-31 17:02:00,
2013-05-31 11:03:00,45.7,24.5,30.11,West,279,0.0,2.7,43,0.00,,---,0.00,VWS V14.01,2013-05-31 17:03:00,
2013-05-31 11:06:00,45.9,25.2,30.11,WSW,238,2.7,3.1,44,0.00,,---,0.00,VWS V14.01,2013-05-31 17:06:00,
2013-05-31 11:07:00,45.9,24.6,30.11,SSW,211,3.6,4.0,43,0.00,,---,0.00,VWS V14.01,2013-05-31 17:07:00,
2013-05-31 11:09:00,46.0,24.8,30.11,SSW,210,4.0,4.0,43,0.00,,---,0.00,VWS V14.01,2013-05-31 17:09:00,
2013-05-31 11:11:00,46.0,24.8,30.11,SW,225,0.0,4.0,43,0.00,,---,0.00,VWS V14.01,2013-05-31 17:11:00,
2013-05-31 11:13:00,46.0,24.8,30.11,SSW,202,4.0,4.0,43,0.00,,---,0.00,VWS V14.01,2013-05-31 17:13:00,
2013-05-31 11:14:00,46.0,24.8,30.11,SW,218,4.9,5.8,43,0.00,,---,0.00,VWS V14.01,2013-05-31 17:14:00,
2013-05-31 11:16:00,46.2,24.4,30.11,SSW,210,2.7,5.4,42,0.00,,---,0.00,VWS V14.01,2013-05-31 17:16:00,
2013-05-31 11:18:00,46.2,24.4,30.11,SW,221,2.7,5.4,42,0.00,,---,0.00,VWS V14.01,2013-05-31 17:18:00,
2013-05-31 11:19:00,46.2,24.4,30.11,SW,221,2.7,5.4,42,0.00,,---,0.00,VWS V14.01,2013-05-31 17:19:00,
2013-05-31 11:21:00,46.2,24.4,30.11,SW,221,0.0,5.4,42,0.00,,---,0.00,VWS V14.01,2013-05-31 17:21:00,
2013-05-31 11:22:00,46.4,24.6,30.11,SW,221,0.0,5.4,42,0.00,,---,0.00,VWS V14.01,2013-05-31 17:22:00,
2013-05-31 11:23:00,46.4,24.6,30.11,SW,221,0.0,5.4,42,0.00,,---,0.00,VWS V14.01,2013-05-31 17:23:00,
2013-05-31 11:24:00,46.4,24.6,30.11,SW,221,0.0,5.4,42,0.00,,---,0.00,VWS V14.01,2013-05-31 17:24:00,
2013-05-31 11:27:00,46.4,24.6,30.11,WSW,256,2.7,5.4,42,0.00,,---,0.00,VWS V14.01,2013-05-31 17:27:00,
2013-05-31 11:29:00,46.6,24.7,30.11,SSW,197,2.7,5.4,42,0.00,,---,0.00,VWS V14.01,2013-05-31 17:29:00,
2013-05-31 11:32:00,46.6,24.7,30.11,SW,217,4.0,4.0,42,0.00,,---,0.00,VWS V14.01,2013-05-31 17:32:00,
2013-05-31 11:34:00,46.6,24.7,30.11,SW,235,2.2,4.0,42,0.00,,---,0.00,VWS V14.01,2013-05-31 17:34:00,
2013-05-31 11:37:00,46.6,24.7,30.11,WSW,237,2.7,4.0,42,0.00,,---,0.00,VWS V14.01,2013-05-31 17:37:00,
2013-05-31 11:39:00,46.6,24.7,30.11,SW,221,0.0,4.0,42,0.00,,---,0.00,VWS V14.01,2013-05-31 17:39:00,
2013-05-31 11:42:00,46.8,24.9,30.11,SW,230,0.0,4.0,42,0.00,,---,0.00,VWS V14.01,2013-05-31 17:42:00,
2013-05-31 11:43:00,46.9,25.1,30.11,SW,230,0.0,4.0,42,0.00,,---,0.00,VWS V14.01,2013-05-31 17:43:00,
2013-05-31 11:44:00,46.9,25.1,30.11,SW,230,0.0,4.0,42,0.00,,---,0.00,VWS V14.01,2013-05-31 17:44:00,
2013-05-31 11:47:00,47.1,25.2,30.11,SW,236,0.0,2.7,42,0.00,,---,0.00,VWS V14.01,2013-05-31 17:47:00,
2013-05-31 11:48:00,47.1,25.2,30.11,SW,215,2.2,2.7,42,0.00,,---,0.00,VWS V14.01,2013-05-31 17:48:00,
2013-05-31 11:50:00,47.1,25.2,30.11,West,270,3.1,3.1,42,0.00,,---,0.00,VWS V14.01,2013-05-31 17:50:00,
2013-05-31 11:52:00,47.1,25.2,30.11,NNW,331,2.2,3.6,42,0.00,,---,0.00,VWS V14.01,2013-05-31 17:52:00,
2013-05-31 11:53:00,47.1,24.6,30.11,WNW,298,2.7,3.6,41,0.00,,---,0.00,VWS V14.01,2013-05-31 17:53:00,
2013-05-31 11:54:00,47.3,25.4,30.11,WNW,294,3.6,3.6,42,0.00,,---,0.00,VWS V14.01,2013-05-31 17:54:00,
2013-05-31 11:55:00,47.1,24.6,30.11,NW,314,3.6,4.0,41,0.00,,---,0.00,VWS V14.01,2013-05-31 17:55:00,
2013-05-31 11:56:00,47.1,24.6,30.11,NW,310,2.7,4.0,41,0.00,,---,0.00,VWS V14.01,2013-05-31 17:56:00,
2013-05-31 11:58:00,47.3,24.8,30.11,West,280,5.8,5.8,41,0.00,,---,0.00,VWS V14.01,2013-05-31 17:58:00,
2013-05-31 11:59:00,47.3,24.8,30.11,WNW,294,2.7,5.8,41,0.00,,---,0.00,VWS V14.01,2013-05-31 17:59:00,
2013-05-31 12:00:00,47.3,24.2,30.11,WSW,256,3.1,5.8,40,0.00,,---,0.00,VWS V14.01,2013-05-31 18:00:00,
2013-05-31 12:01:00,47.3,24.2,30.11,NW,321,3.1,3.1,40,0.00,,---,0.00,VWS V14.01,2013-05-31 18:01:00,
2013-05-31 12:03:00,47.3,24.8,30.14,West,265,2.2,4.0,41,0.00,,---,0.00,VWS V14.01,2013-05-31 18:03:00,
2013-05-31 12:04:00,47.3,24.8,30.14,NNW,329,3.6,4.0,41,0.00,,---,0.00,VWS V14.01,2013-05-31 18:04:00,
2013-05-31 12:05:00,47.3,24.8,30.14,NW,316,2.7,4.0,41,0.00,,---,0.00,VWS V14.01,2013-05-31 18:05:00,
2013-05-31 12:06:00,47.3,24.8,30.14,NW,316,2.2,4.0,41,0.00,,---,0.00,VWS V14.01,2013-05-31 18:06:00,
2013-05-31 12:08:00,47.3,24.2,30.14,West,275,2.2,5.8,40,0.00,,---,0.00,VWS V14.01,2013-05-31 18:08:00,
2013-05-31 12:09:00,47.3,24.2,30.14,WNW,299,4.0,5.8,40,0.00,,---,0.00,VWS V14.01,2013-05-31 18:09:00,
2013-05-31 12:11:00,47.3,24.8,30.14,WNW,283,3.1,5.8,41,0.00,,---,0.00,VWS V14.01,2013-05-31 18:11:00,
2013-05-31 12:13:00,47.3,24.8,30.14,SW,231,3.6,5.8,41,0.00,,---,0.00,VWS V14.01,2013-05-31 18:13:00,
2013-05-31 12:14:00,47.3,24.8,30.14,North,353,4.0,5.8,41,0.00,,---,0.00,VWS V14.01,2013-05-31 18:14:00,
2013-05-31 12:16:00,47.3,24.2,30.14,SSW,210,4.0,4.0,40,0.00,,---,0.00,VWS V14.01,2013-05-31 18:16:00,
2013-05-31 12:19:00,47.5,24.4,30.14,WNW,295,3.1,6.7,40,0.00,,---,0.00,VWS V14.01,2013-05-31 18:19:00,
2013-05-31 12:21:00,47.5,25.0,30.14,NNW,327,3.6,6.7,41,0.00,,---,0.00,VWS V14.01,2013-05-31 18:21:00,
2013-05-31 12:24:00,47.5,24.4,30.14,NNW,333,4.0,6.7,40,0.00,,---,0.00,VWS V14.01,2013-05-31 18:24:00,
2013-05-31 12:26:00,47.5,24.4,30.14,West,274,3.1,6.7,40,0.00,,---,0.00,VWS V14.01,2013-05-31 18:26:00,
2013-05-31 12:27:00,47.5,25.0,30.14,NW,314,3.6,6.7,41,0.00,,---,0.00,VWS V14.01,2013-05-31 18:27:00,
2013-05-31 12:29:00,47.5,24.4,30.14,SW,233,3.6,7.2,40,0.00,,---,0.00,VWS V14.01,2013-05-31 18:29:00,
2013-05-31 12:30:00,47.5,24.4,30.14,WSW,258,3.1,7.2,40,0.00,,---,0.00,VWS V14.01,2013-05-31 18:30:00,
2013-05-31 12:31:00,47.7,24.5,30.14,West,275,2.2,5.4,40,0.00,,---,0.00,VWS V14.01,2013-05-31 18:31:00,
2013-05-31 12:32:00,47.7,24.5,30.11,West,279,4.0,5.4,40,0.00,,---,0.00,VWS V14.01,2013-05-31 18:32:00,
2013-05-31 12:34:00,47.7,24.5,30.11,WNW,283,3.1,5.8,40,0.00,,---,0.00,VWS V14.01,2013-05-31 18:34:00,
2013-05-31 12:35:00,47.7,24.5,30.11,SW,235,2.7,5.8,40,0.00,,---,0.00,VWS V14.01,2013-05-31 18:35:00,
2013-05-31 12:36:00,47.7,25.1,30.11,West,278,4.9,5.8,41,0.00,,---,0.00,VWS V14.01,2013-05-31 18:36:00,
2013-05-31 12:37:00,47.7,24.5,30.11,West,281,5.4,5.8,40,0.00,,---,0.00,VWS V14.01,2013-05-31 18:37:00,
2013-05-31 12:39:00,47.8,24.7,30.11,WNW,302,3.1,5.8,40,0.00,,---,0.00,VWS V14.01,2013-05-31 18:39:00,
2013-05-31 12:40:00,47.8,24.7,30.11,WNW,302,4.0,5.8,40,0.00,,---,0.00,VWS V14.01,2013-05-31 18:40:00,
2013-05-31 12:41:00,47.8,24.7,30.11,North,353,2.7,5.8,40,0.00,,---,0.00,VWS V14.01,2013-05-31 18:41:00,
2013-05-31 12:42:00,47.8,24.7,30.11,NW,307,5.4,5.8,40,0.00,,---,0.00,VWS V14.01,2013-05-31 18:42:00,
2013-05-31 12:43:00,47.8,24.7,30.11,West,272,3.1,5.8,40,0.00,,---,0.00,VWS V14.01,2013-05-31 18:43:00,
2013-05-31 12:45:00,48.0,24.9,30.11,WNW,289,2.7,5.8,40,0.00,,---,0.00,VWS V14.01,2013-05-31 18:45:00,
2013-05-31 12:46:00,48.0,24.9,30.11,WSW,258,3.6,3.6,40,0.00,,---,0.00,VWS V14.01,2013-05-31 18:46:00,
2013-05-31 12:47:00,48.0,24.9,30.11,WNW,298,3.1,3.6,40,0.00,,---,0.00,VWS V14.01,2013-05-31 18:47:00,
2013-05-31 12:48:00,48.0,24.9,30.11,NNW,328,4.9,4.9,40,0.00,,---,0.00,VWS V14.01,2013-05-31 18:48:00,
2013-05-31 12:50:00,48.2,24.4,30.11,NW,309,2.7,4.9,39,0.00,,---,0.00,VWS V14.01,2013-05-31 18:50:00,
2013-05-31 12:51:00,48.2,25.0,30.11,WNW,300,3.1,4.9,40,0.00,,---,0.00,VWS V14.01,2013-05-31 18:51:00,
2013-05-31 12:52:00,48.2,24.4,30.11,West,272,5.4,5.4,39,0.00,,---,0.00,VWS V14.01,2013-05-31 18:52:00,
2013-05-31 12:53:00,48.2,24.4,30.11,WNW,296,3.6,5.8,39,0.00,,---,0.00,VWS V14.01,2013-05-31 18:53:00,
2013-05-31 12:55:00,48.2,24.4,30.11,WNW,290,2.7,5.8,39,0.00,,---,0.00,VWS V14.01,2013-05-31 18:55:00,
2013-05-31 12:56:00,48.2,25.0,30.11,WNW,294,3.6,5.8,40,0.00,,---,0.00,VWS V14.01,2013-05-31 18:56:00,
2013-05-31 12:58:00,48.4,24.6,30.11,NW,307,3.1,5.8,39,0.00,,---,0.00,VWS V14.01,2013-05-31 18:58:00,
2013-05-31 12:59:00,48.2,24.4,30.11,NW,323,3.6,5.8,39,0.00,,---,0.00,VWS V14.01,2013-05-31 18:59:00,
2013-05-31 13:00:00,48.4,24.6,30.11,WNW,296,4.0,5.8,39,0.00,,---,0.00,VWS V14.01,2013-05-31 19:00:00,
2013-05-31 13:01:00,48.4,24.0,30.11,WNW,292,2.7,4.0,38,0.00,,---,0.00,VWS V14.01,2013-05-31 19:01:00,
2013-05-31 13:03:00,48.4,24.6,30.11,NW,316,5.8,5.8,39,0.00,,---,0.00,VWS V14.01,2013-05-31 19:03:00,
2013-05-31 13:04:00,48.4,24.6,30.11,WNW,301,4.0,5.8,39,0.00,,---,0.00,VWS V14.01,2013-05-31 19:04:00,
2013-05-31 13:05:00,48.4,24.0,30.11,WNW,298,4.0,5.8,38,0.00,,---,0.00,VWS V14.01,2013-05-31 19:05:00,
2013-05-31 13:06:00,48.4,24.0,30.11,WSW,241,2.7,5.8,38,0.00,,---,0.00,VWS V14.01,2013-05-31 19:06:00,
2013-05-31 13:08:00,48.4,24.6,30.11,NW,314,4.0,5.8,39,0.00,,---,0.00,VWS V14.01,2013-05-31 19:08:00,
2013-05-31 13:09:00,48.4,24.6,30.11,NNW,331,2.2,5.8,39,0.00,,---,0.00,VWS V14.01,2013-05-31 19:09:00,
2013-05-31 13:10:00,48.4,24.6,30.11,West,278,5.8,5.8,39,0.00,,---,0.00,VWS V14.01,2013-05-31 19:10:00,
2013-05-31 13:12:00,48.2,24.4,30.11,West,263,4.0,5.8,39,0.00,,---,0.00,VWS V14.01,2013-05-31 19:12:00,
2013-05-31 13:13:00,48.2,24.4,30.11,SW,218,4.0,5.8,39,0.00,,---,0.00,VWS V14.01,2013-05-31 19:13:00,
2013-05-31 13:14:00,48.2,24.4,30.11,WNW,282,4.0,5.8,39,0.00,,---,0.00,VWS V14.01,2013-05-31 19:14:00,
2013-05-31 13:15:00,48.2,24.4,30.11,West,277,3.1,5.8,39,0.00,,---,0.00,VWS V14.01,2013-05-31 19:15:00,
2013-05-31 13:17:00,48.4,24.6,30.14,West,271,3.1,4.0,39,0.00,,---,0.00,VWS V14.01,2013-05-31 19:17:00,
2013-05-31 13:18:00,48.4,24.6,30.14,WNW,292,5.4,5.4,39,0.00,,---,0.00,VWS V14.01,2013-05-31 19:18:00,
2013-05-31 13:20:00,48.4,24.6,30.14,WNW,298,4.9,5.4,39,0.00,,---,0.00,VWS V14.01,2013-05-31 19:20:00,
2013-05-31 13:22:00,48.4,24.6,30.14,NW,321,2.7,5.8,39,0.00,,---,0.00,VWS V14.01,2013-05-31 19:22:00,
2013-05-31 13:23:00,48.4,24.6,30.14,WNW,295,4.0,5.8,39,0.00,,---,0.00,VWS V14.01,2013-05-31 19:23:00,
2013-05-31 13:25:00,48.2,23.8,30.14,NW,313,5.4,8.3,38,0.00,,---,0.00,VWS V14.01,2013-05-31 19:25:00,
2013-05-31 13:26:00,48.4,24.0,30.14,WNW,299,4.0,8.3,38,0.00,,---,0.00,VWS V14.01,2013-05-31 19:26:00,
2013-05-31 13:27:00,48.4,24.6,30.14,WNW,286,5.4,8.3,39,0.00,,---,0.00,VWS V14.01,2013-05-31 19:27:00,
2013-05-31 13:29:00,48.4,24.0,30.14,NW,309,4.0,8.3,38,0.00,,---,0.00,VWS V14.01,2013-05-31 19:29:00,
2013-05-31 13:30:00,48.4,24.6,30.14,NNW,345,4.0,8.3,39,0.00,,---,0.00,VWS V14.01,2013-05-31 19:30:00,
2013-05-31 13:31:00,48.4,24.6,30.14,WSW,248,5.8,5.8,39,0.00,,---,0.00,VWS V14.01,2013-05-31 19:31:00,
2013-05-31 13:33:00,48.4,24.0,30.14,WNW,285,3.1,5.8,38,0.00,,---,0.00,VWS V14.01,2013-05-31 19:33:00,
2013-05-31 13:34:00,48.4,24.6,30.14,SW,229,2.7,5.8,39,0.00,,---,0.00,VWS V14.01,2013-05-31 19:34:00,
2013-05-31 13:35:00,48.4,24.6,30.14,NW,308,2.7,5.8,39,0.00,,---,0.00,VWS V14.01,2013-05-31 19:35:00,
2013-05-31 13:36:00,48.4,24.0,30.14,West,274,3.6,5.8,38,0.00,,---,0.00,VWS V14.01,2013-05-31 19:36:00,
2013-05-31 13:38:00,48.4,24.0,30.14,West,274,3.1,5.8,38,0.00,,---,0.00,VWS V14.01,2013-05-31 19:38:00,
2013-05-31 13:39:00,48.4,24.0,30.14,WNW,291,0.0,5.8,38,0.00,,---,0.00,VWS V14.01,2013-05-31 19:39:00,
2013-05-31 13:40:00,48.6,24.7,30.14,NW,317,5.4,5.8,39,0.00,,---,0.00,VWS V14.01,2013-05-31 19:40:00,
2013-05-31 13:41:00,48.6,24.1,30.14,WNW,302,4.0,5.8,38,0.00,,---,0.00,VWS V14.01,2013-05-31 19:41:00,
2013-05-31 13:43:00,48.6,24.1,30.14,WNW,284,3.1,5.8,38,0.00,,---,0.00,VWS V14.01,2013-05-31 19:43:00,
2013-05-31 13:44:00,48.6,24.7,30.14,WNW,297,3.1,5.8,39,0.00,,---,0.00,VWS V14.01,2013-05-31 19:44:00,
2013-05-31 13:45:00,48.6,24.7,30.14,West,281,3.1,5.8,39,0.00,,---,0.00,VWS V14.01,2013-05-31 19:45:00,
2013-05-31 13:46:00,48.7,24.9,30.14,WNW,289,0.0,3.6,39,0.00,,---,0.00,VWS V14.01,2013-05-31 19:46:00,
2013-05-31 13:48:00,48.7,24.3,30.14,WNW,294,3.6,4.0,38,0.00,,---,0.00,VWS V14.01,2013-05-31 19:48:00,
2013-05-31 13:49:00,48.7,24.3,30.14,WNW,301,3.1,4.0,38,0.00,,---,0.00,VWS V14.01,2013-05-31 19:49:00,
2013-05-31 13:51:00,48.7,24.3,30.14,SSW,211,2.7,4.0,38,0.00,,---,0.00,VWS V14.01,2013-05-31 19:51:00,
2013-05-31 13:53:00,48.7,24.9,30.14,WNW,282,4.0,6.3,39,0.00,,---,0.00,VWS V14.01,2013-05-31 19:53:00,
2013-05-31 13:54:00,48.7,24.3,30.14,West,279,2.7,6.3,38,0.00,,---,0.00,VWS V14.01,2013-05-31 19:54:00,
2013-05-31 13:56:00,48.7,24.3,30.14,WNW,285,3.6,6.3,38,0.00,,---,0.00,VWS V14.01,2013-05-31 19:56:00,
2013-05-31 13:57:00,48.7,24.3,30.14,West,274,3.6,6.3,38,0.00,,---,0.00,VWS V14.01,2013-05-31 19:57:00,
2013-05-31 13:58:00,48.7,24.3,30.14,WNW,294,4.9,6.3,38,0.00,,---,0.00,VWS V14.01,2013-05-31 19:58:00,
2013-05-31 14:00:00,48.7,24.3,30.14,West,263,2.7,6.3,38,0.00,,---,0.00,VWS V14.01,2013-05-31 20:00:00,
2013-05-31 14:01:00,48.7,24.3,30.14,NW,307,4.9,4.9,38,0.00,,---,0.00,VWS V14.01,2013-05-31 20:01:00,
2013-05-31 14:02:00,48.7,24.3,30.14,WNW,291,3.1,4.9,38,0.00,,---,0.00,VWS V14.01,2013-05-31 20:02:00,
2013-05-31 14:04:00,48.9,24.5,30.14,WNW,295,5.4,5.8,38,0.00,,---,0.00,VWS V14.01,2013-05-31 20:04:00,
2013-05-31 14:05:00,48.9,24.5,30.14,West,279,5.8,5.8,38,0.00,,---,0.00,VWS V14.01,2013-05-31 20:05:00,
2013-05-31 14:06:00,48.9,24.5,30.14,WNW,289,2.7,5.8,38,0.00,,---,0.00,VWS V14.01,2013-05-31 20:06:00,
2013-05-31 14:07:00,48.9,24.5,30.14,WNW,292,3.6,5.8,38,0.00,,---,0.00,VWS V14.01,2013-05-31 20:07:00,
2013-05-31 14:09:00,48.9,24.5,30.14,NW,313,2.2,5.8,38,0.00,,---,0.00,VWS V14.01,2013-05-31 20:09:00,
2013-05-31 14:10:00,48.9,24.5,30.14,WSW,258,5.8,5.8,38,0.00,,---,0.00,VWS V14.01,2013-05-31 20:10:00,
2013-05-31 14:11:00,49.1,24.6,30.14,NNW,341,2.2,5.8,38,0.00,,---,0.00,VWS V14.01,2013-05-31 20:11:00,
2013-05-31 14:12:00,49.1,24.6,30.14,WNW,284,3.6,5.8,38,0.00,,---,0.00,VWS V14.01,2013-05-31 20:12:00,
2013-05-31 14:15:00,49.1,24.6,30.14,NW,321,4.0,5.8,38,0.00,,---,0.00,VWS V14.01,2013-05-31 20:15:00,
2013-05-31 14:16:00,49.1,24.6,30.14,West,275,3.1,4.0,38,0.00,,---,0.00,VWS V14.01,2013-05-31 20:16:00,
2013-05-31 14:17:00,49.1,24.6,30.14,West,281,2.7,4.0,38,0.00,,---,0.00,VWS V14.01,2013-05-31 20:17:00,
2013-05-31 14:18:00,49.1,24.6,30.14,West,281,0.0,4.0,38,0.00,,---,0.00,VWS V14.01,2013-05-31 20:18:00,
2013-05-31 14:20:00,49.3,24.8,30.14,WNW,303,3.6,4.0,38,0.00,,---,0.00,VWS V14.01,2013-05-31 20:20:00,
2013-05-31 14:21:00,49.3,24.8,30.14,NW,312,0.0,4.9,38,0.00,,---,0.00,VWS V14.01,2013-05-31 20:21:00,
2013-05-31 14:22:00,49.3,24.8,30.14,West,277,3.1,4.9,38,0.00,,---,0.00,VWS V14.01,2013-05-31 20:22:00,
2013-05-31 14:23:00,49.3,24.8,30.14,West,277,0.0,4.9,38,0.00,,---,0.00,VWS V14.01,2013-05-31 20:23:00,
2013-05-31 14:25:00,49.3,24.8,30.14,WNW,290,3.1,4.9,38,0.00,,---,0.00,VWS V14.01,2013-05-31 20:25:00,
2013-05-31 14:26:00,49.5,24.9,30.14,WNW,288,2.7,4.9,38,0.00,,---,0.00,VWS V14.01,2013-05-31 20:26:00,
2013-05-31 14:27:00,49.5,24.9,30.14,WNW,291,4.0,4.9,38,0.00,,---,0.00,VWS V14.01,2013-05-31 20:27:00,
2013-05-31 14:28:00,49.5,24.9,30.14,WNW,287,3.1,4.9,38,0.00,,---,0.00,VWS V14.01,2013-05-31 20:28:00,
2013-05-31 14:30:00,49.5,24.9,30.14,NW,318,3.6,4.9,38,0.00,,---,0.00,VWS V14.01,2013-05-31 20:30:00,
2013-05-31 14:31:00,49.5,24.9,30.14,NW,316,4.0,4.0,38,0.00,,---,0.00,VWS V14.01,2013-05-31 20:31:00,
2013-05-31 14:32:00,49.3,24.8,30.14,NW,320,2.7,4.0,38,0.00,,---,0.00,VWS V14.01,2013-05-31 20:32:00,
2013-05-31 14:33:00,49.3,24.8,30.14,WNW,294,0.0,4.0,38,0.00,,---,0.00,VWS V14.01,2013-05-31 20:33:00,
2013-05-31 14:35:00,49.5,24.9,30.14,West,269,2.7,4.0,38,0.00,,---,0.00,VWS V14.01,2013-05-31 20:35:00,
2013-05-31 14:36:00,49.3,24.8,30.14,West,281,3.6,4.0,38,0.00,,---,0.00,VWS V14.01,2013-05-31 20:36:00,
2013-05-31 14:37:00,49.3,24.8,30.14,WNW,283,3.1,4.0,38,0.00,,---,0.00,VWS V14.01,2013-05-31 20:37:00,
2013-05-31 14:38:00,49.5,24.9,30.14,NW,326,3.6,4.0,38,0.00,,---,0.00,VWS V14.01,2013-05-31 20:38:00,
2013-05-31 14:40:00,49.3,24.1,30.14,West,264,2.7,5.8,37,0.00,,---,0.00,VWS V14.01,2013-05-31 20:40:00,
2013-05-31 14:41:00,49.3,24.8,30.14,WNW,301,5.8,5.8,38,0.00,,---,0.00,VWS V14.01,2013-05-31 20:41:00,
2013-05-31 14:42:00,49.3,24.8,30.14,WNW,283,3.6,5.8,38,0.00,,---,0.00,VWS V14.01,2013-05-31 20:42:00,
2013-05-31 14:43:00,49.3,24.8,30.14,WNW,300,3.1,5.8,38,0.00,,---,0.00,VWS V14.01,2013-05-31 20:43:00,
2013-05-31 14:45:00,49.3,24.8,30.14,West,268,6.3,6.3,38,0.00,,---,0.00,VWS V14.01,2013-05-31 20:45:00,
2013-05-31 14:46:00,49.3,24.8,30.17,WNW,286,2.7,5.8,38,0.00,,---,0.00,VWS V14.01,2013-05-31 20:46:00,
2013-05-31 14:47:00,49.3,24.8,30.17,NW,316,4.0,5.8,38,0.00,,---,0.00,VWS V14.01,2013-05-31 20:47:00,
2013-05-31 14:48:00,49.3,24.8,30.17,NW,304,6.3,6.3,38,0.00,,---,0.00,VWS V14.01,2013-05-31 20:48:00,
2013-05-31 14:49:00,49.3,24.8,30.17,WNW,288,3.1,6.3,38,0.00,,---,0.00,VWS V14.01,2013-05-31 20:49:00,
2013-05-31 14:50:00,49.3,24.8,30.17,NNW,330,3.6,6.3,38,0.00,,---,0.00,VWS V14.01,2013-05-31 20:50:00,
2013-05-31 14:52:00,49.3,24.8,30.17,West,278,3.1,6.3,38,0.00,,---,0.00,VWS V14.01,2013-05-31 20:52:00,
2013-05-31 14:53:00,49.3,24.8,30.17,NW,306,2.7,6.3,38,0.00,,---,0.00,VWS V14.01,2013-05-31 20:53:00,
2013-05-31 14:54:00,49.3,24.8,30.17,NW,309,2.7,6.3,38,0.00,,---,0.00,VWS V14.01,2013-05-31 20:54:00,
2013-05-31 14:55:00,49.3,24.8,30.17,WNW,287,2.7,6.3,38,0.00,,---,0.00,VWS V14.01,2013-05-31 20:55:00,
2013-05-31 14:57:00,49.3,24.8,30.17,WNW,289,3.1,6.3,38,0.00,,---,0.00,VWS V14.01,2013-05-31 20:57:00,
2013-05-31 14:58:00,49.3,24.8,30.17,WNW,295,4.0,6.3,38,0.00,,---,0.00,VWS V14.01,2013-05-31 20:58:00,
2013-05-31 14:59:00,49.3,24.8,30.17,West,270,5.4,6.3,38,0.00,,---,0.00,VWS V14.01,2013-05-31 20:59:00,
2013-05-31 15:01:00,49.3,24.8,30.17,WNW,288,4.9,4.9,38,0.00,,---,0.00,VWS V14.01,2013-05-31 21:01:00,
2013-05-31 15:02:00,49.3,24.8,30.17,West,274,5.4,5.4,38,0.00,,---,0.00,VWS V14.01,2013-05-31 21:02:00,
2013-05-31 15:03:00,49.3,24.8,30.17,West,278,5.4,5.4,38,0.00,,---,0.00,VWS V14.01,2013-05-31 21:03:00,
2013-05-31 15:05:00,49.3,24.8,30.17,WSW,250,5.4,5.4,38,0.00,,---,0.00,VWS V14.01,2013-05-31 21:05:00,
2013-05-31 15:06:00,49.3,24.1,30.17,WNW,286,3.1,5.4,37,0.00,,---,0.00,VWS V14.01,2013-05-31 21:06:00,
2013-05-31 15:07:00,49.3,24.8,30.17,West,261,3.1,5.4,38,0.00,,---,0.00,VWS V14.01,2013-05-31 21:07:00,
2013-05-31 15:08:00,49.3,24.8,30.17,WNW,290,2.7,5.8,38,0.00,,---,0.00,VWS V14.01,2013-05-31 21:08:00,
2013-05-31 15:09:00,49.3,24.1,30.17,West,272,2.7,5.8,37,0.00,,---,0.00,VWS V14.01,2013-05-31 21:09:00,
2013-05-31 15:10:00,49.3,24.1,30.17,WNW,289,3.1,5.8,37,0.00,,---,0.00,VWS V14.01,2013-05-31 21:10:00,
2013-05-31 15:11:00,49.3,24.8,30.17,SW,226,3.1,5.8,38,0.00,,---,0.00,VWS V14.01,2013-05-31 21:11:00,
2013-05-31 15:12:00,49.3,24.8,30.17,NW,314,3.6,5.8,38,0.00,,---,0.00,VWS V14.01,2013-05-31 21:12:00,
2013-05-31 15:13:00,49.3,24.1,30.17,WNW,291,4.0,5.8,37,0.00,,---,0.00,VWS V14.01,2013-05-31 21:13:00,
2013-05-31 15:14:00,49.5,24.9,30.17,North,357,4.0,5.8,38,0.00,,---,0.00,VWS V14.01,2013-05-31 21:14:00,
2013-05-31 15:15:00,49.5,24.9,30.17,NW,312,4.0,5.8,38,0.00,,---,0.00,VWS V14.01,2013-05-31 21:15:00,
2013-05-31 15:16:00,49.5,24.9,30.17,WSW,258,4.0,4.0,38,0.00,,---,0.00,VWS V14.01,2013-05-31 21:16:00,
2013-05-31 15:17:00,49.5,24.9,30.17,NW,310,2.7,4.9,38,0.00,,---,0.00,VWS V14.01,2013-05-31 21:17:00,
2013-05-31 15:18:00,49.5,24.9,30.17,WSW,241,4.9,4.9,38,0.00,,---,0.00,VWS V14.01,2013-05-31 21:18:00,
2013-05-31 15:19:00,49.5,24.9,30.17,West,276,2.7,4.9,38,0.00,,---,0.00,VWS V14.01,2013-05-31 21:19:00,
2013-05-31 15:20:00,49.5,24.9,30.17,WNW,303,4.9,5.4,38,0.00,,---,0.00,VWS V14.01,2013-05-31 21:20:00,
2013-05-31 15:21:00,49.5,24.9,30.17,WNW,301,4.0,6.3,38,0.00,,---,0.00,VWS V14.01,2013-05-31 21:21:00,
2013-05-31 15:22:00,49.5,24.9,30.17,West,276,2.7,6.3,38,0.00,,---,0.00,VWS V14.01,2013-05-31 21:22:00,
2013-05-31 15:23:00,49.5,24.9,30.17,NNW,345,4.9,6.3,38,0.00,,---,0.00,VWS V14.01,2013-05-31 21:23:00,
2013-05-31 15:24:00,49.5,24.9,30.17,NW,313,2.2,6.3,38,0.00,,---,0.00,VWS V14.01,2013-05-31 21:24:00,
2013-05-31 15:25:00,49.5,24.9,30.17,NW,313,2.7,6.3,38,0.00,,---,0.00,VWS V14.01,2013-05-31 21:25:00,
2013-05-31 15:26:00,49.5,24.9,30.17,NW,313,0.0,6.3,38,0.00,,---,0.00,VWS V14.01,2013-05-31 21:26:00,
2013-05-31 15:28:00,49.5,24.9,30.17,NW,304,2.7,6.3,38,0.00,,---,0.00,VWS V14.01,2013-05-31 21:28:00,
2013-05-31 15:29:00,49.5,24.9,30.17,NW,309,2.2,6.3,38,0.00,,---,0.00,VWS V14.01,2013-05-31 21:29:00,
2013-05-31 15:30:00,49.5,24.9,30.17,NNW,340,3.6,3.6,38,0.00,,---,0.00,VWS V14.01,2013-05-31 21:30:00,
2013-05-31 15:31:00,49.5,24.9,30.17,NW,305,2.7,3.6,38,0.00,,---,0.00,VWS V14.01,2013-05-31 21:31:00,
2013-05-31 15:33:00,49.5,24.9,30.17,North,0,4.9,6.3,38,0.00,,---,0.00,VWS V14.01,2013-05-31 21:33:00,
2013-05-31 15:34:00,49.5,24.9,30.17,NNE,18,4.0,6.3,38,0.00,,---,0.00,VWS V14.01,2013-05-31 21:34:00,
2013-05-31 15:35:00,49.5,24.9,30.17,North,7,4.0,6.3,38,0.00,,---,0.00,VWS V14.01,2013-05-31 21:35:00,
2013-05-31 15:36:00,49.5,24.9,30.17,North,3,3.6,6.3,38,0.00,,---,0.00,VWS V14.01,2013-05-31 21:36:00,
2013-05-31 15:38:00,49.5,24.9,30.17,North,8,5.4,6.3,38,0.00,,---,0.00,VWS V14.01,2013-05-31 21:38:00,
2013-05-31 15:39:00,49.5,24.9,30.17,NNE,13,5.8,6.3,38,0.00,,---,0.00,VWS V14.01,2013-05-31 21:39:00,
2013-05-31 15:40:00,49.5,24.9,30.17,North,0,4.9,6.3,38,0.00,,---,0.00,VWS V14.01,2013-05-31 21:40:00,
2013-05-31 15:41:00,49.3,25.4,30.17,North,11,4.0,6.3,39,0.00,,---,0.00,VWS V14.01,2013-05-31 21:41:00,
2013-05-31 15:42:00,49.3,25.4,30.17,North,4,3.1,6.3,39,0.00,,---,0.00,VWS V14.01,2013-05-31 21:42:00,
2013-05-31 15:43:00,49.3,25.4,30.17,NNE,13,3.6,6.3,39,0.00,,---,0.00,VWS V14.01,2013-05-31 21:43:00,
2013-05-31 15:44:00,49.1,25.2,30.17,North,7,3.1,6.3,39,0.00,,---,0.00,VWS V14.01,2013-05-31 21:44:00,
2013-05-31 15:45:00,49.1,25.8,30.17,North,1,2.7,6.3,40,0.00,,---,0.00,VWS V14.01,2013-05-31 21:45:00,
2013-05-31 15:46:00,49.1,25.8,30.17,North,1,2.2,2.7,40,0.00,,---,0.00,VWS V14.01,2013-05-31 21:46:00,
2013-05-31 15:47:00,49.1,26.4,30.17,North,353,4.0,4.9,41,0.00,,---,0.00,VWS V14.01,2013-05-31 21:47:00,
2013-05-31 15:48:00,48.9,26.9,30.17,North,353,3.1,4.9,42,0.00,,---,0.00,VWS V14.01,2013-05-31 21:48:00,
2013-05-31 15:49:00,48.9,27.4,30.17,North,0,3.6,4.9,43,0.00,,---,0.00,VWS V14.01,2013-05-31 21:49:00,
2013-05-31 15:51:00,48.7,27.8,30.17,NNE,16,4.0,5.8,44,0.00,,---,0.00,VWS V14.01,2013-05-31 21:51:00,
2013-05-31 15:52:00,48.7,27.8,30.17,North,357,4.9,5.8,44,0.00,,---,0.00,VWS V14.01,2013-05-31 21:52:00,
2013-05-31 15:53:00,48.6,28.7,30.17,North,7,3.6,5.8,46,0.00,,---,0.00,VWS V14.01,2013-05-31 21:53:00,
2013-05-31 15:54:00,48.6,29.3,30.17,North,357,2.7,5.8,47,0.00,,---,0.00,VWS V14.01,2013-05-31 21:54:00,
2013-05-31 15:56:00,48.4,29.1,30.17,North,1,3.1,5.8,47,0.00,,---,0.00,VWS V14.01,2013-05-31 21:56:00,
2013-05-31 15:57:00,48.4,29.6,30.17,North,5,3.1,5.8,48,0.00,,---,0.00,VWS V14.01,2013-05-31 21:57:00,
2013-05-31 15:58:00,48.4,29.6,30.17,NNE,20,4.9,5.8,48,0.00,,---,0.00,VWS V14.01,2013-05-31 21:58:00,
2013-05-31 15:59:00,48.4,29.6,30.17,North,0,3.6,5.8,48,0.00,,---,0.00,VWS V14.01,2013-05-31 21:59:00,
2013-05-31 16:01:00,48.4,30.1,30.17,North,0,4.0,5.4,49,0.00,,---,0.00,VWS V14.01,2013-05-31 22:01:00,
2013-05-31 16:02:00,48.2,30.0,30.20,North,0,4.9,5.4,49,0.00,,---,0.00,VWS V14.01,2013-05-31 22:02:00,
2013-05-31 16:04:00,48.0,30.3,30.20,North,357,4.0,5.4,50,0.00,,---,0.00,VWS V14.01,2013-05-31 22:04:00,
2013-05-31 16:07:00,48.0,30.8,30.20,NNW,340,2.7,5.4,51,0.00,,---,0.00,VWS V14.01,2013-05-31 22:07:00,
2013-05-31 16:09:00,48.0,30.8,30.20,North,357,5.4,6.3,51,0.00,,---,0.00,VWS V14.01,2013-05-31 22:09:00,
2013-05-31 16:10:00,48.0,30.8,30.20,North,357,5.4,6.3,51,0.00,,---,0.00,VWS V14.01,2013-05-31 22:10:00,
2013-05-31 16:12:00,47.8,30.6,30.20,North,2,4.0,6.3,51,0.00,,---,0.00,VWS V14.01,2013-05-31 22:12:00,
2013-05-31 16:13:00,47.8,30.6,30.20,North,8,3.1,6.3,51,0.00,,---,0.00,VWS V14.01,2013-05-31 22:13:00,
2013-05-31 16:14:00,47.8,31.1,30.20,North,9,5.4,6.3,52,0.00,,---,0.00,VWS V14.01,2013-05-31 22:14:00,
2013-05-31 16:15:00,47.8,30.6,30.20,NNW,338,3.1,6.3,51,0.00,,---,0.00,VWS V14.01,2013-05-31 22:15:00,
2013-05-31 16:17:00,47.8,31.1,30.20,North,3,3.1,5.4,52,0.00,,---,0.00,VWS V14.01,2013-05-31 22:17:00,
2013-05-31 16:18:00,47.8,31.1,30.20,North,353,2.7,5.4,52,0.00,,---,0.00,VWS V14.01,2013-05-31 22:18:00,
2013-05-31 16:19:00,47.8,31.1,30.20,North,353,2.7,5.4,52,0.00,,---,0.00,VWS V14.01,2013-05-31 22:19:00,
2013-05-31 16:20:00,47.8,31.1,30.20,North,0,2.2,5.4,52,0.00,,---,0.00,VWS V14.01,2013-05-31 22:20:00,
2013-05-31 16:22:00,47.8,31.1,30.20,North,353,2.7,5.4,52,0.00,,---,0.00,VWS V14.01,2013-05-31 22:22:00,
2013-05-31 16:23:00,47.8,31.1,30.20,North,353,2.7,5.4,52,0.00,,---,0.00,VWS V14.01,2013-05-31 22:23:00,
2013-05-31 16:24:00,47.8,31.1,30.20,North,353,2.7,5.4,52,0.00,,---,0.00,VWS V14.01,2013-05-31 22:24:00,
2013-05-31 16:25:00,47.8,31.1,30.20,North,353,2.2,5.4,52,0.00,,---,0.00,VWS V14.01,2013-05-31 22:25:00,
2013-05-31 16:27:00,47.8,31.1,30.20,North,353,0.0,5.4,52,0.00,,---,0.00,VWS V14.01,2013-05-31 22:27:00,
2013-05-31 16:28:00,48.0,31.2,30.20,North,353,0.0,5.4,52,0.00,,---,0.00,VWS V14.01,2013-05-31 22:28:00,
2013-05-31 16:29:00,48.0,31.2,30.20,North,353,2.7,5.4,52,0.00,,---,0.00,VWS V14.01,2013-05-31 22:29:00,
2013-05-31 16:30:00,48.0,31.2,30.20,North,353,0.0,5.4,52,0.00,,---,0.00,VWS V14.01,2013-05-31 22:30:00,
2013-05-31 16:31:00,48.0,31.2,30.20,North,353,0.0,0.0,52,0.00,,---,0.00,VWS V14.01,2013-05-31 22:31:00,
2013-05-31 16:32:00,48.0,31.2,30.20,North,353,0.0,0.0,52,0.00,,---,0.00,VWS V14.01,2013-05-31 22:32:00,
2013-05-31 16:33:00,48.0,31.2,30.20,North,353,0.0,0.0,52,0.00,,---,0.00,VWS V14.01,2013-05-31 22:33:00,
2013-05-31 16:34:00,48.0,31.2,30.20,North,353,0.0,0.0,52,0.00,,---,0.00,VWS V14.01,2013-05-31 22:34:00,
2013-05-31 16:35:00,48.2,31.4,30.20,North,353,0.0,0.0,52,0.00,,---,0.00,VWS V14.01,2013-05-31 22:35:00,
2013-05-31 16:36:00,48.2,31.4,30.20,North,353,0.0,0.0,52,0.00,,---,0.00,VWS V14.01,2013-05-31 22:36:00,
2013-05-31 16:38:00,48.2,30.9,30.20,North,353,0.0,0.0,51,0.00,,---,0.00,VWS V14.01,2013-05-31 22:38:00,
2013-05-31 16:39:00,48.2,30.9,30.20,North,353,0.0,0.0,51,0.00,,---,0.00,VWS V14.01,2013-05-31 22:39:00,
2013-05-31 16:40:00,48.2,30.9,30.20,North,353,0.0,0.0,51,0.00,,---,0.00,VWS V14.01,2013-05-31 22:40:00,
2013-05-31 16:42:00,48.4,31.1,30.20,North,353,0.0,0.0,51,0.00,,---,0.00,VWS V14.01,2013-05-31 22:42:00,
2013-05-31 16:43:00,48.4,31.1,30.20,North,353,0.0,0.0,51,0.00,,---,0.00,VWS V14.01,2013-05-31 22:43:00,
2013-05-31 16:44:00,48.4,31.1,30.20,North,353,0.0,0.0,51,0.00,,---,0.00,VWS V14.01,2013-05-31 22:44:00,
2013-05-31 16:45:00,48.4,31.1,30.20,North,353,0.0,0.0,51,0.00,,---,0.00,VWS V14.01,2013-05-31 22:45:00,
2013-05-31 16:47:00,48.4,31.1,30.20,North,353,0.0,0.0,51,0.00,,---,0.00,VWS V14.01,2013-05-31 22:47:00,
2013-05-31 16:48:00,48.4,31.1,30.20,North,353,0.0,0.0,51,0.00,,---,0.00,VWS V14.01,2013-05-31 22:48:00,
2013-05-31 16:49:00,48.4,31.1,30.20,North,353,0.0,0.0,51,0.00,,---,0.00,VWS V14.01,2013-05-31 22:49:00,
2013-05-31 16:50:00,48.4,31.1,30.20,North,353,0.0,0.0,51,0.00,,---,0.00,VWS V14.01,2013-05-31 22:50:00,
2013-05-31 16:52:00,48.4,31.1,30.20,North,353,0.0,0.0,51,0.00,,---,0.00,VWS V14.01,2013-05-31 22:52:00,
2013-05-31 16:54:00,48.4,31.1,30.20,North,353,0.0,0.0,51,0.00,,---,0.00,VWS V14.01,2013-05-31 22:54:00,
2013-05-31 16:55:00,48.4,31.1,30.20,North,353,0.0,0.0,51,0.00,,---,0.00,VWS V14.01,2013-05-31 22:55:00,
2013-05-31 16:56:00,48.4,31.1,30.20,North,353,0.0,0.0,51,0.00,,---,0.00,VWS V14.01,2013-05-31 22:56:00,
2013-05-31 16:57:00,48.4,31.1,30.20,North,353,0.0,0.0,51,0.00,,---,0.00,VWS V14.01,2013-05-31 22:57:00,
2013-05-31 16:59:00,48.4,31.1,30.20,North,353,0.0,0.0,51,0.00,,---,0.00,VWS V14.01,2013-05-31 22:59:00,
2013-05-31 17:00:00,48.4,31.6,30.20,North,353,0.0,0.0,52,0.00,,---,0.00,VWS V14.01,2013-05-31 23:00:00,
2013-05-31 17:01:00,48.4,31.6,30.20,North,353,0.0,0.0,52,0.00,,---,0.00,VWS V14.01,2013-05-31 23:01:00,
2013-05-31 17:02:00,48.2,31.4,30.20,North,353,0.0,0.0,52,0.00,,---,0.00,VWS V14.01,2013-05-31 23:02:00,
2013-05-31 17:04:00,48.2,30.9,30.20,North,353,0.0,0.0,51,0.00,,---,0.00,VWS V14.01,2013-05-31 23:04:00,
2013-05-31 17:05:00,48.2,30.9,30.20,North,353,0.0,0.0,51,0.00,,---,0.00,VWS V14.01,2013-05-31 23:05:00,
2013-05-31 17:06:00,48.2,30.9,30.20,North,353,0.0,0.0,51,0.00,,---,0.00,VWS V14.01,2013-05-31 23:06:00,
2013-05-31 17:07:00,48.2,30.9,30.20,North,353,0.0,0.0,51,0.00,,---,0.00,VWS V14.01,2013-05-31 23:07:00,
2013-05-31 17:10:00,48.2,30.9,30.20,North,353,0.0,0.0,51,0.00,,---,0.00,VWS V14.01,2013-05-31 23:10:00,
2013-05-31 17:12:00,48.2,31.4,30.20,North,353,0.0,0.0,52,0.00,,---,0.00,VWS V14.01,2013-05-31 23:12:00,
2013-05-31 17:15:00,48.2,31.4,30.20,North,353,0.0,0.0,52,0.00,,---,0.00,VWS V14.01,2013-05-31 23:15:00,
2013-05-31 17:17:00,48.2,31.4,30.20,North,353,0.0,0.0,52,0.00,,---,0.00,VWS V14.01,2013-05-31 23:17:00,
2013-05-31 17:18:00,48.2,31.4,30.20,North,353,0.0,0.0,52,0.00,,---,0.00,VWS V14.01,2013-05-31 23:18:00,
2013-05-31 17:20:00,48.2,31.9,30.20,North,353,0.0,0.0,53,0.00,,---,0.00,VWS V14.01,2013-05-31 23:20:00,
2013-05-31 17:21:00,48.2,31.9,30.20,North,353,0.0,0.0,53,0.00,,---,0.00,VWS V14.01,2013-05-31 23:21:00,
2013-05-31 17:22:00,48.2,31.9,30.20,North,353,0.0,0.0,53,0.00,,---,0.00,VWS V14.01,2013-05-31 23:22:00,
2013-05-31 17:23:00,48.4,32.5,30.20,North,353,0.0,0.0,54,0.00,,---,0.00,VWS V14.01,2013-05-31 23:23:00,
2013-05-31 17:25:00,48.4,33.0,30.20,North,353,0.0,0.0,55,0.00,,---,0.00,VWS V14.01,2013-05-31 23:25:00,
2013-05-31 17:26:00,48.2,32.8,30.20,North,353,0.0,0.0,55,0.00,,---,0.00,VWS V14.01,2013-05-31 23:26:00,
2013-05-31 17:27:00,48.2,32.8,30.20,North,353,0.0,0.0,55,0.00,,---,0.00,VWS V14.01,2013-05-31 23:27:00,
2013-05-31 17:28:00,48.2,32.8,30.20,North,353,0.0,0.0,55,0.00,,---,0.00,VWS V14.01,2013-05-31 23:28:00,
2013-05-31 17:30:00,48.2,32.8,30.20,North,353,0.0,0.0,55,0.00,,---,0.00,VWS V14.01,2013-05-31 23:30:00,
2013-05-31 17:31:00,48.2,32.8,30.20,North,353,0.0,0.0,55,0.00,,---,0.00,VWS V14.01,2013-05-31 23:31:00,
2013-05-31 17:32:00,48.2,32.8,30.23,North,353,0.0,0.0,55,0.00,,---,0.00,VWS V14.01,2013-05-31 23:32:00,
2013-05-31 17:34:00,48.2,32.8,30.23,North,353,0.0,0.0,55,0.00,,---,0.00,VWS V14.01,2013-05-31 23:34:00,
2013-05-31 17:35:00,48.2,32.8,30.23,North,353,0.0,0.0,55,0.00,,---,0.00,VWS V14.01,2013-05-31 23:35:00,
2013-05-31 17:36:00,48.2,32.8,30.23,North,353,0.0,0.0,55,0.00,,---,0.00,VWS V14.01,2013-05-31 23:36:00,
2013-05-31 17:37:00,48.2,32.8,30.23,North,353,0.0,0.0,55,0.00,,---,0.00,VWS V14.01,2013-05-31 23:37:00,
2013-05-31 17:39:00,48.2,33.3,30.23,North,353,0.0,0.0,56,0.00,,---,0.00,VWS V14.01,2013-05-31 23:39:00,
2013-05-31 17:41:00,48.2,33.3,30.23,North,353,0.0,0.0,56,0.00,,---,0.00,VWS V14.01,2013-05-31 23:41:00,
2013-05-31 17:42:00,48.2,33.3,30.23,North,353,0.0,0.0,56,0.00,,---,0.00,VWS V14.01,2013-05-31 23:42:00,
2013-05-31 17:44:00,48.2,33.7,30.23,North,353,0.0,0.0,57,0.00,,---,0.00,VWS V14.01,2013-05-31 23:44:00,
2013-05-31 17:46:00,48.2,33.7,30.23,North,353,0.0,0.0,57,0.00,,---,0.00,VWS V14.01,2013-05-31 23:46:00,
2013-05-31 17:47:00,48.2,33.7,30.23,North,353,0.0,0.0,57,0.00,,---,0.00,VWS V14.01,2013-05-31 23:47:00,
2013-05-31 17:50:00,48.2,33.7,30.23,North,353,0.0,0.0,57,0.00,,---,0.00,VWS V14.01,2013-05-31 23:50:00,
2013-05-31 17:51:00,48.2,33.7,30.23,North,353,0.0,0.0,57,0.00,,---,0.00,VWS V14.01,2013-05-31 23:51:00,
2013-05-31 17:52:00,48.2,33.7,30.23,North,353,0.0,0.0,57,0.00,,---,0.00,VWS V14.01,2013-05-31 23:52:00,
2013-05-31 17:55:00,48.2,33.3,30.23,North,353,0.0,0.0,56,0.00,,---,0.00,VWS V14.01,2013-05-31 23:55:00,
2013-05-31 17:56:00,48.2,33.3,30.23,North,353,0.0,0.0,56,0.00,,---,0.00,VWS V14.01,2013-05-31 23:56:00,
2013-05-31 17:57:00,48.2,33.3,30.23,North,353,0.0,0.0,56,0.00,,---,0.00,VWS V14.01,2013-05-31 23:57:00,
2013-05-31 18:00:00,48.4,33.4,30.23,North,353,0.0,0.0,56,0.00,,---,0.00,VWS V14.01,2013-06-01 00:00:00,
2013-05-31 18:02:00,48.4,33.4,30.23,North,353,0.0,0.0,56,0.00,,---,0.00,VWS V14.01,2013-06-01 00:02:00,
2013-05-31 18:03:00,48.4,33.4,30.23,North,353,0.0,0.0,56,0.00,,---,0.00,VWS V14.01,2013-06-01 00:03:00,
2013-05-31 18:05:00,48.4,33.9,30.23,North,353,0.0,0.0,57,0.00,,---,0.00,VWS V14.01,2013-06-01 00:05:00,
2013-05-31 18:07:00,48.4,33.9,30.23,North,353,0.0,0.0,57,0.00,,---,0.00,VWS V14.01,2013-06-01 00:07:00,
2013-05-31 18:08:00,48.4,33.9,30.23,North,353,0.0,0.0,57,0.00,,---,0.00,VWS V14.01,2013-06-01 00:08:00,
2013-05-31 18:11:00,48.4,34.3,30.23,North,353,0.0,0.0,58,0.00,,---,0.00,VWS V14.01,2013-06-01 00:11:00,
2013-05-31 18:12:00,48.4,34.7,30.23,North,353,0.0,0.0,59,0.00,,---,0.00,VWS V14.01,2013-06-01 00:12:00,
2013-05-31 18:13:00,48.2,34.6,30.23,North,353,0.0,0.0,59,0.00,,---,0.00,VWS V14.01,2013-06-01 00:13:00,
2013-05-31 18:16:00,48.2,35.0,30.23,North,353,0.0,0.0,60,0.00,,---,0.00,VWS V14.01,2013-06-01 00:16:00,
2013-05-31 18:17:00,48.2,35.0,30.23,North,353,0.0,0.0,60,0.00,,---,0.00,VWS V14.01,2013-06-01 00:17:00,
2013-05-31 18:18:00,48.2,35.0,30.23,North,353,0.0,0.0,60,0.00,,---,0.00,VWS V14.01,2013-06-01 00:18:00,
2013-05-31 18:21:00,48.2,35.0,30.23,North,353,0.0,0.0,60,0.00,,---,0.00,VWS V14.01,2013-06-01 00:21:00,
2013-05-31 18:23:00,48.2,35.4,30.23,North,353,2.7,3.1,61,0.00,,---,0.00,VWS V14.01,2013-06-01 00:23:00,
2013-05-31 18:26:00,48.2,35.4,30.23,North,349,2.7,3.1,61,0.00,,---,0.00,VWS V14.01,2013-06-01 00:26:00,
2013-05-31 18:28:00,48.2,35.4,30.23,North,349,0.0,3.1,61,0.00,,---,0.00,VWS V14.01,2013-06-01 00:28:00,
2013-05-31 18:31:00,48.2,35.4,30.23,North,349,2.2,2.7,61,0.00,,---,0.00,VWS V14.01,2013-06-01 00:31:00,
2013-05-31 18:33:00,48.2,35.0,30.23,North,349,0.0,2.7,60,0.00,,---,0.00,VWS V14.01,2013-06-01 00:33:00,
2013-05-31 18:34:00,48.2,35.0,30.23,North,349,0.0,2.7,60,0.00,,---,0.00,VWS V14.01,2013-06-01 00:34:00,
2013-05-31 18:37:00,48.2,35.0,30.23,North,349,0.0,2.7,60,0.00,,---,0.00,VWS V14.01,2013-06-01 00:37:00,
2013-05-31 18:38:00,48.2,35.0,30.23,North,349,0.0,2.7,60,0.00,,---,0.00,VWS V14.01,2013-06-01 00:38:00,
2013-05-31 18:39:00,48.2,35.0,30.23,North,349,0.0,2.7,60,0.00,,---,0.00,VWS V14.01,2013-06-01 00:39:00,
2013-05-31 18:42:00,48.2,35.0,30.23,SW,236,0.0,2.7,60,0.00,,---,0.00,VWS V14.01,2013-06-01 00:42:00,
2013-05-31 18:44:00,48.2,34.6,30.23,SSW,212,0.0,2.7,59,0.00,,---,0.00,VWS V14.01,2013-06-01 00:44:00,
2013-05-31 18:47:00,48.2,34.6,30.23,SSW,198,2.7,2.7,59,0.00,,---,0.00,VWS V14.01,2013-06-01 00:47:00,
2013-05-31 18:49:00,48.2,34.6,30.23,SSW,201,2.7,2.7,59,0.00,,---,0.00,VWS V14.01,2013-06-01 00:49:00,
2013-05-31 18:52:00,48.0,34.8,30.23,SSW,199,2.2,3.1,60,0.00,,---,0.00,VWS V14.01,2013-06-01 00:52:00,
2013-05-31 18:54:00,48.0,34.8,30.23,SSW,199,2.2,3.1,60,0.00,,---,0.00,VWS V14.01,2013-06-01 00:54:00,
2013-05-31 18:57:00,48.2,35.0,30.23,SSW,198,0.0,3.1,60,0.00,,---,0.00,VWS V14.01,2013-06-01 00:57:00,
2013-05-31 18:59:00,48.2,35.4,30.23,SSW,199,0.0,3.1,61,0.00,,---,0.00,VWS V14.01,2013-06-01 00:59:00,
2013-05-31 19:02:00,48.2,34.6,30.23,SSW,197,3.1,3.1,59,0.00,,---,0.00,VWS V14.01,2013-06-01 01:02:00,
2013-05-31 19:04:00,48.2,34.6,30.23,SSW,197,2.7,4.0,59,0.00,,---,0.00,VWS V14.01,2013-06-01 01:04:00,
2013-05-31 19:05:00,48.2,34.6,30.23,SSW,197,2.2,4.0,59,0.00,,---,0.00,VWS V14.01,2013-06-01 01:05:00,
2013-05-31 19:08:00,48.2,34.6,30.23,SSW,197,2.7,4.0,59,0.00,,---,0.00,VWS V14.01,2013-06-01 01:08:00,
2013-05-31 19:09:00,48.2,34.6,30.23,SSW,197,0.0,4.0,59,0.00,,---,0.00,VWS V14.01,2013-06-01 01:09:00,
2013-05-31 19:10:00,48.2,34.6,30.23,SSW,197,2.2,4.0,59,0.00,,---,0.00,VWS V14.01,2013-06-01 01:10:00,
2013-05-31 19:13:00,48.2,34.1,30.23,SSW,197,0.0,4.0,58,0.00,,---,0.00,VWS V14.01,2013-06-01 01:13:00,
2013-05-31 19:15:00,48.2,34.1,30.23,SSW,197,0.0,4.0,58,0.00,,---,0.00,VWS V14.01,2013-06-01 01:15:00,
2013-05-31 19:16:00,48.2,34.1,30.23,SSW,197,2.7,2.7,58,0.00,,---,0.00,VWS V14.01,2013-06-01 01:16:00,
2013-05-31 19:19:00,48.2,34.1,30.23,SSW,195,3.1,3.6,58,0.00,,---,0.00,VWS V14.01,2013-06-01 01:19:00,
2013-05-31 19:20:00,48.2,33.7,30.23,SSW,196,0.0,3.6,57,0.00,,---,0.00,VWS V14.01,2013-06-01 01:20:00,
2013-05-31 19:21:00,48.2,33.7,30.23,SSW,196,2.7,3.6,57,0.00,,---,0.00,VWS V14.01,2013-06-01 01:21:00,
2013-05-31 19:24:00,48.2,33.7,30.23,SSW,194,2.2,4.0,57,0.00,,---,0.00,VWS V14.01,2013-06-01 01:24:00,
2013-05-31 19:25:00,48.2,33.7,30.23,SSW,194,2.2,4.0,57,0.00,,---,0.00,VWS V14.01,2013-06-01 01:25:00,
2013-05-31 19:26:00,48.0,33.5,30.23,SSW,194,2.2,4.0,57,0.00,,---,0.00,VWS V14.01,2013-06-01 01:26:00,
2013-05-31 19:29:00,48.0,33.5,30.23,SSW,194,0.0,4.0,57,0.00,,---,0.00,VWS V14.01,2013-06-01 01:29:00,
2013-05-31 19:31:00,48.0,34.0,30.23,SSW,194,0.0,0.0,58,0.00,,---,0.00,VWS V14.01,2013-06-01 01:31:00,
2013-05-31 19:35:00,48.0,33.5,30.26,SSW,193,2.2,3.1,57,0.00,,---,0.00,VWS V14.01,2013-06-01 01:35:00,
2013-05-31 19:36:00,48.0,33.5,30.26,SSW,193,2.2,3.1,57,0.00,,---,0.00,VWS V14.01,2013-06-01 01:36:00,
2013-05-31 19:40:00,48.0,33.5,30.26,SSW,203,0.0,3.6,57,0.00,,---,0.00,VWS V14.01,2013-06-01 01:40:00,
2013-05-31 19:41:00,48.0,34.0,30.26,SSW,203,2.7,3.6,58,0.00,,---,0.00,VWS V14.01,2013-06-01 01:41:00,
2013-05-31 19:45:00,47.8,33.8,30.26,SSW,197,0.0,0.0,58,0.00,,---,0.00,VWS V14.01,2013-06-01 01:45:00,
2013-05-31 19:46:00,47.8,33.8,30.26,SSW,197,0.0,0.0,58,0.00,,---,0.00,VWS V14.01,2013-06-01 01:46:00,
2013-05-31 19:47:00,47.8,33.8,30.26,SSW,197,0.0,0.0,58,0.00,,---,0.00,VWS V14.01,2013-06-01 01:47:00,
2013-05-31 19:51:00,47.8,34.6,30.26,SSW,197,2.2,2.2,60,0.00,,---,0.00,VWS V14.01,2013-06-01 01:51:00,
2013-05-31 19:52:00,47.8,34.6,30.26,SSW,197,0.0,2.2,60,0.00,,---,0.00,VWS V14.01,2013-06-01 01:52:00,
2013-05-31 19:56:00,47.7,34.5,30.26,SSW,197,0.0,2.2,60,0.00,,---,0.00,VWS V14.01,2013-06-01 01:56:00,
2013-05-31 19:57:00,47.7,34.5,30.26,SSW,197,0.0,2.2,60,0.00,,---,0.00,VWS V14.01,2013-06-01 01:57:00,
2013-05-31 20:01:00,47.7,34.0,30.26,SSW,197,0.0,0.0,59,0.00,,---,0.00,VWS V14.01,2013-06-01 02:01:00,
2013-05-31 20:02:00,47.7,34.0,30.26,SSW,197,0.0,0.0,59,0.00,,---,0.00,VWS V14.01,2013-06-01 02:02:00,
2013-05-31 20:03:00,47.7,34.0,30.26,SSW,197,0.0,0.0,59,0.00,,---,0.00,VWS V14.01,2013-06-01 02:03:00,
2013-05-31 20:07:00,47.7,34.0,30.26,SSW,197,0.0,0.0,59,0.00,,---,0.00,VWS V14.01,2013-06-01 02:07:00,
2013-05-31 20:08:00,47.7,34.5,30.26,SSW,197,0.0,0.0,60,0.00,,---,0.00,VWS V14.01,2013-06-01 02:08:00,
2013-05-31 20:12:00,47.7,34.5,30.26,SSW,197,0.0,0.0,60,0.00,,---,0.00,VWS V14.01,2013-06-01 02:12:00,
2013-05-31 20:13:00,47.7,34.5,30.26,SSW,197,0.0,0.0,60,0.00,,---,0.00,VWS V14.01,2013-06-01 02:13:00,
2013-05-31 20:17:00,47.7,34.0,30.26,SSW,197,0.0,2.2,59,0.00,,---,0.00,VWS V14.01,2013-06-01 02:17:00,
2013-05-31 20:18:00,47.7,34.0,30.26,SSW,197,0.0,2.2,59,0.00,,---,0.00,VWS V14.01,2013-06-01 02:18:00,
2013-05-31 20:22:00,47.7,33.6,30.26,SSW,197,0.0,2.2,58,0.00,,---,0.00,VWS V14.01,2013-06-01 02:22:00,
2013-05-31 20:23:00,47.7,33.6,30.26,SSW,197,0.0,2.2,58,0.00,,---,0.00,VWS V14.01,2013-06-01 02:23:00,
2013-05-31 20:24:00,47.7,33.6,30.26,SSW,197,0.0,2.2,58,0.00,,---,0.00,VWS V14.01,2013-06-01 02:24:00,
2013-05-31 20:27:00,47.7,33.6,30.26,SSW,197,0.0,2.2,58,0.00,,---,0.00,VWS V14.01,2013-06-01 02:27:00,
2013-05-31 20:28:00,47.7,33.6,30.26,SSW,197,0.0,2.2,58,0.00,,---,0.00,VWS V14.01,2013-06-01 02:28:00,
2013-05-31 20:29:00,47.8,33.8,30.26,SSW,197,0.0,2.2,58,0.00,,---,0.00,VWS V14.01,2013-06-01 02:29:00,
2013-05-31 20:32:00,47.8,33.4,30.26,SSW,197,0.0,2.2,57,0.00,,---,0.00,VWS V14.01,2013-06-01 02:32:00,
2013-05-31 20:33:00,47.8,33.4,30.26,SSW,197,0.0,2.2,57,0.00,,---,0.00,VWS V14.01,2013-06-01 02:33:00,
2013-05-31 20:34:00,47.8,33.4,30.26,SSW,197,0.0,2.2,57,0.00,,---,0.00,VWS V14.01,2013-06-01 02:34:00,
2013-05-31 20:37:00,47.7,33.2,30.26,SSW,197,0.0,2.2,57,0.00,,---,0.00,VWS V14.01,2013-06-01 02:37:00,
2013-05-31 20:38:00,47.7,33.2,30.26,SSW,197,0.0,2.2,57,0.00,,---,0.00,VWS V14.01,2013-06-01 02:38:00,
2013-05-31 20:39:00,47.7,33.2,30.26,SSW,197,0.0,2.2,57,0.00,,---,0.00,VWS V14.01,2013-06-01 02:39:00,
2013-05-31 20:42:00,47.7,33.6,30.26,SSW,197,2.2,2.2,58,0.00,,---,0.00,VWS V14.01,2013-06-01 02:42:00,
2013-05-31 20:43:00,47.7,33.2,30.26,SSW,197,2.2,2.2,57,0.00,,---,0.00,VWS V14.01,2013-06-01 02:43:00,
2013-05-31 20:44:00,47.7,33.2,30.26,SSW,197,2.7,3.6,57,0.00,,---,0.00,VWS V14.01,2013-06-01 02:44:00,
2013-05-31 20:47:00,47.7,33.2,30.26,SSW,199,2.7,2.7,57,0.00,,---,0.00,VWS V14.01,2013-06-01 02:47:00,
2013-05-31 20:48:00,47.5,33.0,30.26,SSW,203,2.2,2.7,57,0.00,,---,0.00,VWS V14.01,2013-06-01 02:48:00,
2013-05-31 20:49:00,47.5,33.0,30.26,SSW,203,0.0,2.7,57,0.00,,---,0.00,VWS V14.01,2013-06-01 02:49:00,
2013-05-31 20:50:00,47.5,32.6,30.26,SW,224,2.7,2.7,56,0.00,,---,0.00,VWS V14.01,2013-06-01 02:50:00,
2013-05-31 20:53:00,47.5,32.6,30.26,NW,322,2.2,2.7,56,0.00,,---,0.00,VWS V14.01,2013-06-01 02:53:00,
2013-05-31 20:54:00,47.5,32.6,30.26,NW,322,2.7,2.7,56,0.00,,---,0.00,VWS V14.01,2013-06-01 02:54:00,
2013-05-31 20:55:00,47.5,32.1,30.26,NW,324,2.7,2.7,55,0.00,,---,0.00,VWS V14.01,2013-06-01 02:55:00,
2013-05-31 20:58:00,47.5,32.1,30.26,NW,324,2.2,2.7,55,0.00,,---,0.00,VWS V14.01,2013-06-01 02:58:00,
2013-05-31 20:59:00,47.5,32.1,30.26,NW,324,0.0,2.7,55,0.00,,---,0.00,VWS V14.01,2013-06-01 02:59:00,
2013-05-31 21:00:00,47.5,32.1,30.26,NW,324,2.7,2.7,55,0.00,,---,0.00,VWS V14.01,2013-06-01 03:00:00,
2013-05-31 21:03:00,47.3,32.0,30.26,NW,324,0.0,2.7,55,0.00,,---,0.00,VWS V14.01,2013-06-01 03:03:00,
2013-05-31 21:04:00,47.3,32.0,30.26,NW,325,0.0,2.7,55,0.00,,---,0.00,VWS V14.01,2013-06-01 03:04:00,
2013-05-31 21:05:00,47.3,32.0,30.26,NW,325,0.0,2.7,55,0.00,,---,0.00,VWS V14.01,2013-06-01 03:05:00,
2013-05-31 21:06:00,47.3,32.0,30.26,NW,325,0.0,2.7,55,0.00,,---,0.00,VWS V14.01,2013-06-01 03:06:00,
2013-05-31 21:08:00,47.3,32.0,30.26,NW,325,0.0,2.7,55,0.00,,---,0.00,VWS V14.01,2013-06-01 03:08:00,
2013-05-31 21:09:00,47.3,32.0,30.26,NW,325,0.0,2.7,55,0.00,,---,0.00,VWS V14.01,2013-06-01 03:09:00,
2013-05-31 21:10:00,47.3,32.0,30.26,NW,325,0.0,2.7,55,0.00,,---,0.00,VWS V14.01,2013-06-01 03:10:00,
2013-05-31 21:11:00,47.3,32.0,30.26,NW,325,0.0,2.7,55,0.00,,---,0.00,VWS V14.01,2013-06-01 03:11:00,
2013-05-31 21:13:00,47.1,31.8,30.26,NW,325,0.0,2.7,55,0.00,,---,0.00,VWS V14.01,2013-06-01 03:13:00,
2013-05-31 21:14:00,47.1,31.8,30.26,NW,325,0.0,2.7,55,0.00,,---,0.00,VWS V14.01,2013-06-01 03:14:00,
2013-05-31 21:15:00,47.1,31.8,30.26,NW,325,0.0,2.7,55,0.00,,---,0.00,VWS V14.01,2013-06-01 03:15:00,
2013-05-31 21:16:00,47.1,31.8,30.26,NW,325,0.0,0.0,55,0.00,,---,0.00,VWS V14.01,2013-06-01 03:16:00,
2013-05-31 21:19:00,46.9,31.6,30.26,NW,325,0.0,0.0,55,0.00,,---,0.00,VWS V14.01,2013-06-01 03:19:00,
2013-05-31 21:21:00,46.9,32.1,30.26,NW,325,0.0,0.0,56,0.00,,---,0.00,VWS V14.01,2013-06-01 03:21:00,
2013-05-31 21:22:00,46.8,31.9,30.26,NW,325,0.0,0.0,56,0.00,,---,0.00,VWS V14.01,2013-06-01 03:22:00,
2013-05-31 21:24:00,46.8,31.9,30.26,NW,325,0.0,0.0,56,0.00,,---,0.00,VWS V14.01,2013-06-01 03:24:00,
2013-05-31 21:26:00,46.6,31.7,30.26,NW,325,0.0,0.0,56,0.00,,---,0.00,VWS V14.01,2013-06-01 03:26:00,
2013-05-31 21:28:00,46.6,31.7,30.26,NW,325,0.0,0.0,56,0.00,,---,0.00,VWS V14.01,2013-06-01 03:28:00,
2013-05-31 21:29:00,46.6,32.2,30.26,NW,325,0.0,0.0,57,0.00,,---,0.00,VWS V14.01,2013-06-01 03:29:00,
2013-05-31 21:30:00,46.4,32.0,30.26,NW,325,0.0,0.0,57,0.00,,---,0.00,VWS V14.01,2013-06-01 03:30:00,
2013-05-31 21:31:00,46.4,32.0,30.26,NW,325,0.0,0.0,57,0.00,,---,0.00,VWS V14.01,2013-06-01 03:31:00,
2013-05-31 21:33:00,46.4,32.4,30.26,NW,325,0.0,0.0,58,0.00,,---,0.00,VWS V14.01,2013-06-01 03:33:00,
2013-05-31 21:34:00,46.4,32.9,30.26,NW,325,0.0,0.0,59,0.00,,---,0.00,VWS V14.01,2013-06-01 03:34:00,
2013-05-31 21:35:00,46.4,32.9,30.26,NW,325,0.0,0.0,59,0.00,,---,0.00,VWS V14.01,2013-06-01 03:35:00,
2013-05-31 21:36:00,46.4,33.3,30.26,NW,325,0.0,0.0,60,0.00,,---,0.00,VWS V14.01,2013-06-01 03:36:00,
2013-05-31 21:38:00,46.4,34.1,30.26,NW,325,0.0,0.0,62,0.00,,---,0.00,VWS V14.01,2013-06-01 03:38:00,
2013-05-31 21:39:00,46.4,34.5,30.26,NW,325,0.0,0.0,63,0.00,,---,0.00,VWS V14.01,2013-06-01 03:39:00,
2013-05-31 21:40:00,46.4,34.5,30.26,NW,325,0.0,0.0,63,0.00,,---,0.00,VWS V14.01,2013-06-01 03:40:00,
2013-05-31 21:41:00,46.4,34.5,30.26,NW,325,0.0,0.0,63,0.00,,---,0.00,VWS V14.01,2013-06-01 03:41:00,
2013-05-31 21:42:00,46.4,34.5,30.26,NW,325,0.0,0.0,63,0.00,,---,0.00,VWS V14.01,2013-06-01 03:42:00,
2013-05-31 21:43:00,46.4,34.5,30.26,NW,325,0.0,0.0,63,0.00,,---,0.00,VWS V14.01,2013-06-01 03:43:00,
2013-05-31 21:45:00,46.4,34.5,30.26,NW,325,0.0,0.0,63,0.00,,---,0.00,VWS V14.01,2013-06-01 03:45:00,
2013-05-31 21:47:00,46.4,34.5,30.26,NW,325,0.0,0.0,63,0.00,,---,0.00,VWS V14.01,2013-06-01 03:47:00,
2013-05-31 21:49:00,46.4,34.9,30.26,NW,325,0.0,0.0,64,0.00,,---,0.00,VWS V14.01,2013-06-01 03:49:00,
2013-05-31 21:50:00,46.4,34.9,30.26,NW,325,0.0,0.0,64,0.00,,---,0.00,VWS V14.01,2013-06-01 03:50:00,
2013-05-31 21:52:00,46.4,34.9,30.26,NW,325,0.0,0.0,64,0.00,,---,0.00,VWS V14.01,2013-06-01 03:52:00,
2013-05-31 21:54:00,46.4,34.9,30.26,NW,325,0.0,0.0,64,0.00,,---,0.00,VWS V14.01,2013-06-01 03:54:00,
2013-05-31 21:55:00,46.4,34.9,30.26,NW,325,0.0,0.0,64,0.00,,---,0.00,VWS V14.01,2013-06-01 03:55:00,
2013-05-31 21:57:00,46.4,34.9,30.26,NW,325,0.0,0.0,64,0.00,,---,0.00,VWS V14.01,2013-06-01 03:57:00,
2013-05-31 22:00:00,46.4,34.9,30.26,NW,325,0.0,0.0,64,0.00,,---,0.00,VWS V14.01,2013-06-01 04:00:00,
2013-05-31 22:01:00,46.4,34.9,30.26,NW,325,0.0,0.0,64,0.00,,---,0.00,VWS V14.01,2013-06-01 04:01:00,
2013-05-31 22:06:00,46.2,34.7,30.26,NW,325,0.0,0.0,64,0.00,,---,0.00,VWS V14.01,2013-06-01 04:06:00,
2013-05-31 22:11:00,45.9,34.4,30.26,NW,325,0.0,0.0,64,0.00,,---,0.00,VWS V14.01,2013-06-01 04:11:00,
2013-05-31 22:12:00,45.7,34.2,30.26,NW,325,0.0,0.0,64,0.00,,---,0.00,VWS V14.01,2013-06-01 04:12:00,
2013-05-31 22:16:00,45.1,33.7,30.26,NW,325,0.0,0.0,64,0.00,,---,0.00,VWS V14.01,2013-06-01 04:16:00,
2013-05-31 22:17:00,45.0,33.5,30.26,NW,325,0.0,0.0,64,0.00,,---,0.00,VWS V14.01,2013-06-01 04:17:00,
2013-05-31 22:21:00,44.6,33.2,30.26,NW,325,0.0,0.0,64,0.00,,---,0.00,VWS V14.01,2013-06-01 04:21:00,
2013-05-31 22:22:00,44.6,33.2,30.26,NW,325,0.0,0.0,64,0.00,,---,0.00,VWS V14.01,2013-06-01 04:22:00,
2013-05-31 22:23:00,44.2,33.2,30.26,NW,325,0.0,0.0,65,0.00,,---,0.00,VWS V14.01,2013-06-01 04:23:00,
2013-05-31 22:26:00,44.1,33.4,30.26,NW,325,0.0,0.0,66,0.00,,---,0.00,VWS V14.01,2013-06-01 04:26:00,
2013-05-31 22:27:00,44.1,33.4,30.26,NW,325,0.0,0.0,66,0.00,,---,0.00,VWS V14.01,2013-06-01 04:27:00,
2013-05-31 22:28:00,44.1,33.8,30.26,NW,325,0.0,0.0,67,0.00,,---,0.00,VWS V14.01,2013-06-01 04:28:00,
2013-05-31 22:29:00,44.1,34.2,30.26,NW,325,0.0,0.0,68,0.00,,---,0.00,VWS V14.01,2013-06-01 04:29:00,
2013-05-31 22:32:00,44.1,34.9,30.26,NW,325,0.0,0.0,70,0.00,,---,0.00,VWS V14.01,2013-06-01 04:32:00,
2013-05-31 22:33:00,43.9,35.1,30.26,NW,325,0.0,0.0,71,0.00,,---,0.00,VWS V14.01,2013-06-01 04:33:00,
2013-05-31 22:34:00,43.9,35.1,30.26,NW,325,0.0,0.0,71,0.00,,---,0.00,VWS V14.01,2013-06-01 04:34:00,
2013-05-31 22:37:00,43.7,35.6,30.26,NW,325,0.0,0.0,73,0.00,,---,0.00,VWS V14.01,2013-06-01 04:37:00,
2013-05-31 22:50:00,42.4,34.8,30.26,NW,325,0.0,0.0,74,0.00,,---,0.00,VWS V14.01,2013-06-01 04:50:00,
2013-05-31 22:51:00,42.4,34.8,30.26,NW,325,0.0,0.0,74,0.00,,---,0.00,VWS V14.01,2013-06-01 04:51:00,
2013-05-31 22:55:00,42.3,34.6,30.26,NW,325,0.0,0.0,74,0.00,,---,0.00,VWS V14.01,2013-06-01 04:55:00,
2013-05-31 22:56:00,42.3,34.6,30.26,NW,325,0.0,0.0,74,0.00,,---,0.00,VWS V14.01,2013-06-01 04:56:00,
2013-05-31 23:01:00,42.3,34.9,30.26,NW,325,0.0,0.0,75,0.00,,---,0.00,VWS V14.01,2013-06-01 05:01:00,
2013-05-31 23:02:00,42.3,34.9,30.23,NW,325,0.0,0.0,75,0.00,,---,0.00,VWS V14.01,2013-06-01 05:02:00,
2013-05-31 23:06:00,42.4,35.8,30.23,SSW,197,3.1,3.6,77,0.00,,---,0.00,VWS V14.01,2013-06-01 05:06:00,
2013-05-31 23:07:00,42.3,35.6,30.23,SSW,197,2.7,3.6,77,0.00,,---,0.00,VWS V14.01,2013-06-01 05:07:00,
2013-05-31 23:11:00,42.3,35.9,30.23,SSW,200,4.0,4.0,78,0.00,,---,0.00,VWS V14.01,2013-06-01 05:11:00,
2013-05-31 23:12:00,42.3,35.9,30.23,SSW,205,2.7,4.0,78,0.00,,---,0.00,VWS V14.01,2013-06-01 05:12:00,
2013-05-31 23:16:00,42.4,36.1,30.23,SSW,204,4.0,4.9,78,0.00,,---,0.00,VWS V14.01,2013-06-01 05:16:00,
2013-05-31 23:17:00,42.4,36.1,30.23,SSW,195,3.1,4.9,78,0.00,,---,0.00,VWS V14.01,2013-06-01 05:17:00,
2013-05-31 23:18:00,42.4,36.1,30.23,SSW,200,3.1,4.9,78,0.00,,---,0.00,VWS V14.01,2013-06-01 05:18:00,
2013-05-31 23:21:00,42.6,36.2,30.23,South,191,3.1,4.9,78,0.00,,---,0.00,VWS V14.01,2013-06-01 05:21:00,
2013-05-31 23:22:00,42.6,36.2,30.23,South,191,2.7,4.9,78,0.00,,---,0.00,VWS V14.01,2013-06-01 05:22:00,
2013-05-31 23:23:00,42.6,36.2,30.23,South,191,3.1,4.9,78,0.00,,---,0.00,VWS V14.01,2013-06-01 05:23:00,
2013-05-31 23:26:00,42.4,35.8,30.23,South,191,2.7,4.9,77,0.00,,---,0.00,VWS V14.01,2013-06-01 05:26:00,
2013-05-31 23:27:00,42.4,35.8,30.23,South,191,2.7,4.9,77,0.00,,---,0.00,VWS V14.01,2013-06-01 05:27:00,
2013-05-31 23:28:00,42.3,35.6,30.23,South,191,2.7,4.9,77,0.00,,---,0.00,VWS V14.01,2013-06-01 05:28:00,
2013-05-31 23:31:00,42.3,35.6,30.26,SSW,198,4.9,6.3,77,0.00,,---,0.00,VWS V14.01,2013-06-01 05:31:00,
2013-05-31 23:32:00,42.3,35.6,30.26,SSW,200,5.4,6.3,77,0.00,,---,0.00,VWS V14.01,2013-06-01 05:32:00,
2013-05-31 23:33:00,42.3,35.6,30.26,SSW,203,6.3,6.3,77,0.00,,---,0.00,VWS V14.01,2013-06-01 05:33:00,
2013-05-31 23:37:00,42.1,35.1,30.26,SSW,195,3.6,6.3,76,0.00,,---,0.00,VWS V14.01,2013-06-01 05:37:00,
2013-05-31 23:38:00,42.1,35.1,30.26,SSW,193,4.0,6.3,76,0.00,,---,0.00,VWS V14.01,2013-06-01 05:38:00,
2013-05-31 23:42:00,41.7,34.4,30.26,SSW,193,3.6,6.3,75,0.00,,---,0.00,VWS V14.01,2013-06-01 05:42:00,
2013-05-31 23:43:00,41.7,34.4,30.26,SSW,193,3.6,6.3,75,0.00,,---,0.00,VWS V14.01,2013-06-01 05:43:00,
2013-05-31 23:48:00,41.4,34.4,30.26,SSW,193,4.0,4.0,76,0.00,,---,0.00,VWS V14.01,2013-06-01 05:48:00,
2013-05-31 23:49:00,41.2,34.2,30.26,SSW,204,0.0,4.5,76,0.00,,---,0.00,VWS V14.01,2013-06-01 05:49:00,
2013-05-31 23:53:00,40.6,33.0,30.26,SSW,204,0.0,4.5,74,0.00,,---,0.00,VWS V14.01,2013-06-01 05:53:00,
2013-05-31 23:54:00,40.5,32.8,30.26,SSW,204,2.2,4.5,74,0.00,,---,0.00,VWS V14.01,2013-06-01 05:54:00,
2013-05-31 23:58:00,39.9,32.7,30.26,SSW,197,2.7,4.5,75,0.00,,---,0.00,VWS V14.01,2013-06-01 05:58:00,
2013-05-31 23:59:00,39.9,33.0,30.26,SSW,197,3.1,4.5,76,0.00,,---,0.00,VWS V14.01,2013-06-01 05:59:00,